GFSSGP_con_3kmhel_000.txt.gz
Helicity
8 12 28 57 44 37 118 74 34 266 207 120 121 164 147 152 127 102 49 36 96 105 110 84 92 91 88 78 80 79 79 69 69 75 73 76 76 77 65 58 46 37 43 53 57 56 52 52 48
41 33 48 50 29 74 83 63 184 139 34 -1 80 91 249 152 108 82 91 22 124 126 82 67 82 88 87 95 100 86 74 69 77 82 85 84 73 56 42 32 24 34 40 32 26 19 23 24 26
17 46 24 -0 9 90 58 51 20 -15 75 19 -5 95 65 23 12 3 19 20 63 68 54 61 78 82 98 104 99 84 81 86 89 79 78 60 52 45 34 37 37 35 26 18 10 11 14 15 12
23 55 61 27 71 51 39 38 126 233 95 93 47 128 43 -22 -5 20 8 57 91 47 35 53 63 74 98 96 94 86 85 78 78 66 40 42 41 38 42 36 27 17 12 11 11 14 12 9 5
47 45 31 133 120 16 8 48 132 148 167 147 73 42 1 58 111 62 48 76 83 45 45 55 64 77 88 86 78 78 74 72 52 31 34 35 36 37 33 22 13 14 13 13 18 14 13 15 18
33 44 12 124 68 196 16 30 116 237 190 124 77 81 33 1 124 47 49 46 42 57 50 53 68 69 75 78 73 60 56 44 30 31 25 27 27 26 14 5 8 12 8 10 7 5 11 15 13
2 33 64 31 135 -1 14 3 62 68 55 77 18 36 12 85 73 47 23 28 41 43 39 21 39 60 65 53 47 50 40 24 24 19 18 14 7 6 -3 3 5 8 -1 1 -17 -14 -7 -5 -2
-19 46 137 90 -41 113 100 99 100 150 104 63 81 1 10 95 45 43 21 43 37 10 10 11 13 13 17 18 25 17 4 7 10 4 9 1 -4 -10 -17 -9 -9 -0 -4 -9 -21 -23 -14 -8 -14
-10 51 67 39 153 122 69 175 132 54 74 29 -12 6 57 107 90 97 72 56 43 14 14 -4 14 -4 -3 -6 -13 -2 -7 -5 1 -6 1 -2 -24 -21 -14 1 -9 -2 1 -8 -10 -8 -9 -0 -2
6 44 73 -6 20 61 40 93 83 128 154 133 164 142 82 124 144 131 101 81 42 41 8 19 15 -8 -6 -17 -18 -24 -27 -20 -10 -10 -7 1 2 5 1 11 2 11 26 10 2 -7 -17 -4 33
-1 -10 14 -2 4 74 55 94 62 130 42 53 113 107 93 143 149 133 84 102 25 67 52 13 23 3 -2 2 -11 -7 -17 -23 -11 3 1 15 26 30 34 30 21 16 15 39 26 21 37 38 58
-18 -45 34 82 25 86 64 93 65 8 8 74 128 122 125 125 138 114 81 74 142 139 114 38 36 26 10 45 35 24 21 -5 -17 -12 12 53 50 51 53 50 39 37 51 49 50 52 55 60 74
22 54 74 98 108 91 75 60 57 32 56 136 168 144 97 95 93 43 47 66 176 164 140 69 84 55 63 53 49 40 56 43 19 15 27 55 68 60 79 62 39 66 72 74 63 69 75 68 65
47 82 50 113 91 69 42 37 58 11 132 219 222 149 116 105 65 26 37 80 206 189 214 143 142 67 170 93 116 100 123 94 82 48 58 62 95 95 152 134 103 130 133 99 104 113 101 83 79
28 33 22 13 -8 7 18 13 -6 38 108 197 162 164 157 131 122 75 49 79 225 279 268 209 177 95 97 135 134 123 144 127 127 130 167 160 163 179 238 258 229 153 115 106 122 131 116 125 108
23 56 23 2 -39 -9 10 7 2 21 128 133 96 135 124 112 86 27 61 83 197 356 277 207 263 175 136 114 120 130 163 226 213 238 256 268 293 338 279 210 136 110 121 173 180 157 142 141 133
31 65 49 30 3 -15 -6 -1 31 25 61 49 63 154 107 126 129 131 86 103 180 284 272 301 189 212 119 134 193 282 291 263 254 275 269 266 230 134 140 125 115 111 155 189 152 103 110 109 116
31 51 25 69 4 -15 58 26 51 14 128 156 211 239 286 337 330 304 313 198 179 264 307 194 180 136 140 276 329 351 299 289 265 195 138 169 211 173 126 140 179 189 206 200 182 145 108 54 37
9 11 27 98 19 23 149 195 249 241 281 312 353 359 416 487 501 378 380 340 364 350 304 239 150 141 241 324 358 290 254 175 224 264 230 186 136 132 154 161 222 216 251 240 194 136 133 118 81
25 58 119 105 65 59 239 353 287 318 311 301 353 367 302 364 404 355 362 343 270 251 278 304 230 253 240 227 198 197 191 223 204 196 178 241 194 224 214 243 263 293 244 219 186 151 102 70 41
132 111 73 54 34 143 228 347 333 383 385 407 352 280 211 181 173 168 166 159 187 206 135 106 116 159 178 191 172 177 157 153 185 178 162 151 173 160 206 229 216 185 160 174 161 153 150 105 37
51 102 72 67 68 89 28 242 287 289 378 335 292 194 150 116 50 31 44 91 108 47 21 51 57 74 87 74 80 103 115 143 116 113 94 122 143 171 185 171 132 123 127 150 92 76 70 86 126
38 57 61 67 66 61 132 259 264 220 296 234 178 139 16 -83 -6 -13 -12 14 46 62 55 35 33 49 41 20 61 68 83 80 81 121 177 206 175 182 202 118 106 146 137 153 172 142 121 78 77
73 66 85 91 99 109 132 162 189 264 323 260 138 106 23 45 59 57 35 68 55 26 22 38 32 21 1 30 38 46 39 99 180 188 206 231 239 236 264 171 162 118 101 77 76 99 132 144 155
80 63 93 103 106 98 53 120 119 213 240 225 218 106 50 47 81 73 72 56 45 51 56 66 56 51 71 74 132 173 246 313 320 357 303 218 213 203 262 223 185 129 85 75 87 94 101 101 126
29 19 27 38 43 51 91 114 92 169 218 81 110 53 50 137 83 79 143 121 186 227 223 186 165 169 224 292 359 398 396 367 288 269 284 142 125 241 190 191 173 140 106 108 121 132 141 151 153
25 27 13 40 30 64 81 147 67 110 133 174 30 77 127 216 287 272 243 257 297 241 193 164 141 122 144 162 163 178 189 181 148 49 60 62 202 210 183 223 150 110 107 109 131 182 209 157 88
28 -0 -0 6 42 88 90 106 118 114 171 243 224 206 310 356 339 336 323 259 254 179 116 88 115 128 98 154 201 183 107 83 62 107 146 210 229 256 250 151 125 88 47 81 102 133 156 109 72
-9 -9 20 44 54 81 145 139 69 158 217 312 321 317 326 331 351 326 269 224 199 129 84 72 138 130 116 166 176 127 109 105 117 171 233 262 281 186 210 240 207 48 62 97 83 99 114 109 90
25 37 39 59 57 78 113 121 87 151 166 146 185 267 301 401 326 230 187 160 91 116 178 192 210 201 187 134 113 106 105 115 154 214 235 223 220 231 289 303 111 75 71 81 92 135 155 137 130

GFSSGP_con_3kmhel_003.txt.gz
Helicity
45 -11 28 77 58 55 80 86 51 115 187 88 102 69 115 119 78 62 -11 27 87 64 53 79 89 84 73 87 95 87 93 89 73 64 50 49 61 59 49 40 42 49 51 44 32 19 14 17 18
22 14 56 67 37 29 78 55 92 63 29 131 46 66 94 102 20 100 82 28 67 71 61 80 92 85 95 83 87 95 95 76 67 55 53 59 56 43 26 23 25 28 24 19 15 13 17 14 14
-9 46 60 87 29 53 106 61 107 28 -48 -10 45 59 61 37 97 20 15 47 49 67 50 69 96 81 79 88 92 78 70 70 55 52 56 40 27 14 15 17 16 11 5 8 12 15 15 14 17
53 100 60 58 51 40 29 34 -4 46 157 168 47 -37 45 38 -14 -16 28 27 57 48 54 59 76 83 84 89 82 72 61 58 58 44 24 14 10 9 11 8 0 -2 3 2 3 10 15 16 20
49 30 45 96 86 23 -4 71 88 149 39 -39 49 52 32 -46 68 65 1 11 67 58 51 58 73 77 72 63 58 63 59 55 38 21 15 9 9 0 -2 -5 -7 -9 -8 -5 -3 1 5 9 16
72 79 79 167 139 112 58 67 110 132 88 92 149 146 55 12 87 4 29 33 30 42 32 36 43 58 63 68 63 50 38 26 22 12 11 4 -5 -12 -15 -16 -19 -21 -17 -17 -17 -13 -11 -7 5
56 29 66 117 143 166 117 72 124 123 50 49 65 50 10 -40 8 28 37 14 8 11 11 17 28 44 55 46 36 26 18 22 19 6 -7 -15 -21 -28 -25 -23 -26 -23 -25 -31 -22 -13 -14 -13 -14
-10 60 80 30 123 215 238 16 14 66 43 76 28 11 -50 -92 2 20 15 16 9 0 2 11 20 29 20 11 15 13 11 8 1 -17 -34 -26 -27 -23 -19 -16 -21 -21 -25 -26 -23 -24 -33 -27 -14
-11 57 102 75 102 70 30 67 63 104 120 58 20 6 -26 33 48 45 38 36 16 -4 3 -5 5 -12 -7 -12 -19 -5 -6 -9 -18 -30 -27 -14 -6 -10 -13 -14 -16 -18 -29 -36 -33 -36 -40 -42 -29
-1 71 6 29 59 1 21 147 176 150 56 59 143 131 75 82 111 108 75 59 33 -4 -21 -25 -14 -20 -18 -13 -26 -27 -23 -22 -22 -11 -5 1 9 12 17 20 9 4 -9 -26 -24 -25 -32 -18 1
9 60 24 52 91 45 54 74 105 172 57 11 116 88 40 71 98 124 75 82 34 9 -4 -30 -19 -10 -16 -22 -18 -13 -9 -18 -16 14 22 24 31 27 33 43 42 43 31 34 40 38 36 33 49
27 45 27 37 89 68 97 90 107 65 -10 -59 109 124 83 53 117 147 122 105 35 42 12 -1 -14 11 -7 -8 -1 8 9 7 14 21 31 51 65 51 47 57 76 88 69 62 62 55 46 61 73
-1 -26 32 35 86 100 96 93 27 0 25 39 103 102 70 95 159 124 131 95 62 66 36 49 50 26 32 32 61 55 23 34 27 33 55 104 99 86 87 88 119 107 96 81 71 78 88 92 84
14 7 61 89 108 62 64 43 26 13 87 122 150 113 100 115 131 79 61 44 86 110 98 101 85 52 40 69 76 88 47 42 52 65 94 119 104 120 130 148 154 105 90 88 113 118 153 163 157
51 78 93 71 95 48 19 39 2 23 98 153 123 115 96 68 77 97 74 87 134 128 136 120 94 81 71 60 80 76 60 81 119 135 134 134 155 177 192 160 154 168 133 124 157 171 163 159 152
62 43 -9 -26 8 36 21 -12 13 54 149 104 58 5 37 47 26 38 9 45 125 170 179 218 266 177 164 31 134 169 132 167 184 224 209 217 192 192 209 216 203 169 121 99 130 161 181 156 161
59 -58 -16 -11 8 12 -13 10 48 99 88 137 72 78 96 117 145 129 65 49 101 139 275 419 271 281 228 24 137 224 257 272 241 252 236 236 233 243 234 167 141 116 92 186 181 186 180 172 183
-1 -1 30 -10 16 31 3 18 188 173 177 183 229 232 250 256 231 203 182 170 219 243 342 439 322 236 178 243 398 303 313 269 223 236 265 285 246 231 188 156 128 118 176 248 233 202 198 169 154
25 17 45 20 60 118 91 191 203 214 207 299 361 404 430 410 339 286 282 211 269 303 325 292 261 216 190 226 262 247 212 177 174 201 208 182 122 99 106 131 195 191 225 214 205 177 168 146 130
21 33 62 156 153 193 225 298 222 257 234 271 356 389 386 398 412 323 246 240 258 206 219 201 164 163 176 171 187 158 92 100 156 148 121 109 116 145 154 132 104 149 179 232 213 163 126 98 121
69 61 97 135 173 231 371 316 313 280 280 287 258 191 208 165 115 107 102 128 166 191 161 97 39 50 54 73 71 86 93 102 120 109 101 121 130 152 145 119 112 141 165 183 159 172 184 137 111
106 132 147 124 141 116 141 194 221 241 236 221 189 127 83 -14 -21 -51 -1 80 89 63 45 56 69 70 71 72 63 58 64 83 64 60 56 104 139 141 152 187 151 186 119 146 148 149 138 168 217
63 106 104 107 140 187 209 214 216 249 239 180 123 67 23 -34 -20 -19 27 0 23 40 61 55 59 64 35 49 43 31 18 59 119 149 195 220 222 253 219 212 194 155 131 124 94 83 121 102 101
77 84 119 128 154 186 172 217 190 243 216 170 87 36 -13 -18 -90 -29 27 51 58 65 71 64 72 68 68 83 94 116 141 173 210 238 247 217 236 177 145 188 162 151 178 80 68 105 133 133 138
71 80 92 102 121 121 153 176 117 68 203 86 14 9 -3 -8 -18 52 148 152 148 133 118 127 121 119 129 173 222 253 253 213 181 189 223 237 176 160 149 246 215 185 153 139 134 124 101 94 107
68 48 53 22 18 61 125 110 114 123 122 11 30 43 74 113 270 278 252 208 197 183 173 171 167 186 185 189 190 214 196 205 233 213 205 180 176 166 233 222 234 274 149 118 130 112 73 104 116
39 71 41 79 88 91 96 136 124 165 192 194 183 209 206 240 360 435 369 305 270 225 203 194 200 232 257 230 231 215 185 196 198 173 161 137 168 199 230 281 358 216 65 136 150 107 66 64 87
35 8 24 43 46 50 70 110 138 150 151 157 179 270 359 425 461 423 360 309 272 236 221 225 280 313 239 211 190 186 200 183 169 175 171 208 195 233 280 209 138 83 248 114 88 43 62 92 112
35 13 25 23 24 45 66 64 103 165 180 219 287 362 428 433 418 431 379 275 224 186 225 232 286 257 214 196 184 169 175 168 152 157 169 181 246 297 291 283 293 173 101 106 56 46 80 114 103
18 14 27 41 30 63 88 68 91 155 229 319 322 331 386 453 427 390 301 224 168 184 128 194 208 179 131 98 79 76 62 77 94 99 129 264 349 389 403 252 110 74 95 39 46 67 118 120 132

GFSSGP_con_3kmhel_009.txt.gz
Helicity
32 22 20 58 76 85 119 118 54 88 150 129 120 198 210 176 160 146 -13 -17 67 39 -8 -4 34 69 78 73 91 100 89 76 45 38 36 45 35 18 13 12 8 13 21 27 28 32 30 30 35
29 39 64 79 84 90 85 61 96 80 31 116 97 135 164 218 134 81 -46 -8 68 64 1 7 24 65 67 79 82 77 69 45 35 40 40 26 12 7 4 -2 -1 8 12 18 23 26 27 29 27
47 60 69 69 72 59 52 71 110 152 46 47 21 40 57 149 86 -21 -10 43 69 28 -4 10 31 54 69 67 56 57 48 36 43 33 19 7 6 3 -3 -10 -5 5 8 8 10 13 17 15 14
69 76 92 79 -6 9 66 71 159 170 135 62 -16 -57 -69 163 -43 -15 63 28 28 -11 -2 19 31 56 56 46 51 54 37 39 31 15 5 5 0 -6 -14 -9 -5 0 1 1 2 0 1 0 -3
94 80 70 26 9 67 33 37 30 101 70 -10 9 -9 -78 -117 18 67 42 5 8 -15 -10 11 34 38 41 40 45 43 39 34 11 1 -4 -6 -10 -13 -16 -11 -5 -2 2 -2 -5 -10 -11 -11 -12
101 83 50 53 45 41 57 64 168 118 -57 -31 -60 23 19 45 36 44 12 -7 -20 -4 -7 -1 14 24 43 44 44 46 31 12 1 -5 -11 -12 -14 -12 -1 -7 -4 -5 1 3 6 -1 -14 -23 -21
96 73 32 77 65 62 112 154 148 -18 -3 -38 22 20 51 57 22 -2 -13 -25 -26 -13 -7 3 12 24 47 46 35 23 5 -1 -7 -14 -13 -5 -4 -3 -2 4 0 -3 0 1 -8 -18 -21 -20 -20
73 66 43 98 164 236 146 186 -18 -91 -8 39 2 -17 39 37 -9 -25 -18 -18 -25 -19 -8 -1 11 22 19 11 3 -2 -11 -13 -19 -17 -9 0 1 2 11 6 0 -4 -3 -17 -27 -24 -15 -14 -14
57 74 69 116 202 144 135 -23 1 1 56 13 3 -21 37 64 9 -12 -14 -27 -24 -22 -5 5 7 -2 -8 -11 -12 -18 -18 -15 -24 -18 -7 3 4 13 14 10 -2 -12 -17 -15 -17 -16 -19 -16 -19
65 73 35 92 154 31 20 11 20 25 38 9 28 42 84 42 7 -15 -30 -28 -16 -9 -6 -8 -13 -17 -29 -36 -29 -33 -24 -23 -24 -15 -3 4 12 17 18 9 0 -10 -2 10 15 18 9 8 12
17 85 27 31 7 -17 2 4 34 27 -28 -6 56 81 33 14 -5 -4 -3 6 -1 -2 -21 -15 -17 -22 -30 -37 -29 -20 -14 -18 -11 -4 7 10 26 18 22 23 27 39 44 56 65 66 48 40 40
32 51 16 -11 29 2 5 51 -8 2 5 -12 72 94 34 -2 -1 13 26 9 -5 -1 2 -7 -24 -18 -16 -10 0 2 0 -3 3 18 24 24 36 34 38 54 70 79 81 89 105 92 65 69 77
87 45 -11 -41 -49 23 92 38 12 -3 8 38 39 19 22 -13 -30 -48 -32 -40 -11 5 -9 -12 -3 -1 17 39 38 41 33 34 28 32 32 27 37 55 61 85 98 106 125 119 120 109 99 114 133
45 -9 -7 33 61 67 77 41 15 -23 2 19 30 11 -21 -24 -9 -9 -24 -21 9 -10 -5 24 41 49 78 86 92 79 50 28 37 24 90 53 24 79 103 115 134 148 137 138 117 125 140 166 168
26 32 58 95 90 44 75 62 11 36 -38 2 0 -27 -20 -14 -18 13 57 -37 -33 -18 38 88 127 121 109 104 91 67 127 -8 -165 35 81 108 106 105 128 122 143 159 133 144 132 132 157 193 193
33 50 60 73 68 83 9 16 39 93 -33 20 33 3 2 2 -3 12 18 -13 0 30 91 141 181 203 269 223 204 180 38 37 0 -6 5 68 82 80 83 142 178 165 151 104 108 148 170 181 196
84 50 43 69 109 33 34 33 81 86 33 51 49 45 28 17 38 47 35 35 31 70 143 196 247 262 278 292 129 117 71 97 48 35 64 87 77 111 136 172 166 123 110 144 153 167 184 203 200
25 55 31 35 65 87 58 33 102 75 35 45 63 86 91 72 64 67 75 77 114 157 199 212 220 219 198 174 144 87 84 60 86 99 107 120 157 165 169 169 143 122 121 135 141 164 175 174 157
31 57 43 51 35 62 53 34 68 73 67 51 57 79 109 126 122 128 119 112 140 145 145 139 130 114 107 94 40 0 14 83 123 163 160 165 173 177 142 125 123 117 133 119 120 122 150 159 144
43 26 35 67 88 64 62 89 74 86 77 57 54 83 117 167 168 138 124 119 108 66 63 51 62 43 10 -66 -51 23 62 106 142 155 173 175 173 164 149 135 133 122 131 145 160 166 165 152 132
56 9 2 15 136 138 77 61 80 112 118 100 102 116 133 116 122 82 60 36 10 21 22 48 -17 -46 -28 0 38 93 128 134 124 146 157 149 146 169 160 145 153 150 143 170 185 186 194 184 157
13 14 62 87 91 82 73 18 73 109 130 116 113 129 107 104 97 98 85 78 6 -11 37 54 45 59 72 56 65 81 97 117 152 175 167 205 200 169 143 130 109 120 154 198 191 193 197 167 194
10 64 92 75 82 65 91 72 97 155 134 131 120 155 132 137 131 66 25 13 16 64 130 113 163 137 115 115 117 119 137 156 186 196 219 210 177 135 113 123 136 156 192 226 235 219 199 159 183
14 105 124 106 98 71 91 109 96 189 157 161 163 171 125 126 91 95 81 47 90 182 147 200 229 232 231 218 205 187 174 196 212 211 195 179 159 149 145 141 163 211 257 273 254 182 136 137 140
84 98 77 63 93 68 114 127 123 123 105 172 156 134 129 94 84 75 99 118 162 214 251 288 263 230 190 177 154 153 164 188 194 170 146 135 135 128 135 160 242 327 314 242 197 143 112 106 106
85 80 85 44 58 60 82 57 81 59 84 104 97 106 105 80 76 105 149 163 227 290 302 280 261 242 203 152 118 149 180 180 140 128 119 119 121 124 133 187 307 341 273 230 115 17 79 108 102
69 89 87 85 37 3 4 26 -9 88 126 159 236 244 192 140 136 160 204 232 280 282 267 272 284 246 202 130 88 130 146 109 94 90 92 96 92 105 125 195 244 242 213 116 105 129 138 109 90
53 67 49 52 10 32 52 70 62 33 87 129 180 206 194 186 203 230 256 289 313 283 248 242 232 145 134 65 102 121 97 69 86 93 82 72 79 95 121 174 218 201 149 112 118 120 88 80 76
70 65 81 65 57 11 -4 -1 19 4 67 96 113 172 213 217 237 271 304 349 328 270 205 191 161 59 108 81 123 97 82 85 78 74 76 83 83 96 111 159 163 173 122 95 109 94 66 65 67
64 50 45 29 22 53 47 19 18 -14 2 52 125 196 226 238 292 308 330 328 306 229 167 145 74 109 65 130 101 100 94 77 70 67 73 76 78 90 129 165 184 127 99 89 109 84 63 68 75

GFSSGP_con_3kmhel_012.txt.gz
Helicity
27 18 20 27 43 58 61 48 134 93 141 152 177 216 319 356 259 189 49 69 43 35 27 35 24 36 37 49 68 64 65 70 70 46 30 27 26 27 21 10 3 3 3 8 10 13 19 21 25
42 41 30 52 50 44 34 93 50 157 118 151 238 234 239 237 153 64 34 -3 13 36 32 36 19 35 46 55 56 52 63 64 53 37 32 24 22 17 10 3 -8 -1 0 1 3 7 10 8 11
40 32 41 42 19 12 44 50 127 98 78 102 188 108 117 145 69 38 14 25 26 53 26 48 25 28 44 46 45 56 55 58 57 39 23 17 13 8 -1 -4 -5 -5 -6 -6 -5 1 1 -1 -1
55 62 47 26 2 41 54 78 94 105 70 59 28 57 -74 -160 91 5 -60 26 37 25 25 51 24 33 35 39 42 50 56 62 44 24 15 13 5 -1 -3 -7 -8 -5 -5 -4 1 4 6 -2 -4
58 65 24 10 34 62 37 65 36 89 90 24 -33 7 -55 -238 -141 -2 44 -30 -9 2 -8 16 14 22 25 31 49 50 52 44 27 18 15 9 0 1 0 0 -1 5 3 3 1 3 6 6 4
53 69 26 -5 38 47 44 52 21 100 51 16 -10 21 15 -20 -38 -14 9 33 -3 2 -20 -2 11 14 18 40 42 46 44 28 20 18 1 -3 2 6 5 7 7 5 5 2 5 8 7 6 4
49 25 16 53 59 88 121 156 156 231 44 -22 7 15 40 21 6 -5 20 8 -19 -17 1 4 5 12 34 44 38 39 28 23 14 -5 -7 -2 5 2 9 8 5 7 6 4 -1 2 0 -1 5
79 55 40 29 72 132 157 129 86 43 -91 13 0 -4 33 43 27 1 -25 -35 -41 -16 2 3 9 17 23 19 31 29 23 12 -5 -6 -1 3 0 3 9 7 13 5 10 13 3 5 7 11 3
75 37 16 55 85 93 76 102 -27 -82 -40 -15 -3 -18 59 47 -7 -28 -39 -25 -11 -8 3 15 17 18 15 6 12 8 5 -6 -13 -7 7 -5 1 8 6 27 11 24 26 21 13 13 12 16 5
63 42 29 50 128 119 121 14 24 -24 17 0 30 32 72 30 0 0 -12 -25 -12 -13 4 12 10 11 2 -2 0 1 2 -6 -2 0 5 6 13 17 2 9 14 35 42 32 37 36 25 15 48
20 44 59 39 31 -44 -34 -76 -18 -14 -26 21 58 87 15 -2 -20 -25 -24 -14 -11 -10 -6 -3 2 -6 -14 -1 -9 -6 -3 0 7 13 24 25 21 18 14 21 30 46 62 59 61 61 76 76 51
23 38 59 5 -3 -14 -50 -15 -36 -24 56 19 64 68 16 -8 -16 -10 -7 -8 -5 3 -7 -11 0 -6 -2 2 4 14 23 27 29 39 39 35 42 38 28 36 50 55 73 71 71 79 85 85 80
55 46 -1 -22 -33 2 6 -11 6 24 26 48 25 -1 0 -13 -15 -13 -21 -20 -14 -15 -10 0 -1 3 10 27 42 48 45 41 30 42 66 95 83 72 36 49 63 71 77 82 88 94 94 111 111
50 30 29 27 24 28 -11 28 -6 42 18 21 16 -10 -18 -16 -9 -12 -33 -27 -22 -13 2 18 25 36 50 60 66 82 80 41 17 41 104 112 211 89 21 59 87 87 98 118 121 126 119 132 121
25 5 20 10 18 36 31 37 33 46 3 8 4 -25 -29 -25 -35 -26 -27 -23 -8 1 35 50 68 78 101 129 136 165 129 60 11 -11 91 119 136 61 42 59 64 93 110 121 134 117 102 118 126
15 0 14 66 1 12 -51 72 35 50 -39 -20 11 8 -3 -3 -18 -13 -7 -4 3 16 47 74 105 136 186 229 310 261 87 -57 -56 -43 -26 3 42 48 65 83 134 156 145 128 112 110 106 133 128
0 -5 39 60 63 18 -16 47 41 36 -13 -2 8 6 7 2 -5 5 18 27 23 31 76 107 125 176 235 288 292 160 84 60 72 55 45 54 73 98 120 155 158 137 132 119 104 117 103 105 123
-15 19 4 35 59 3 6 31 61 36 3 13 27 27 27 26 21 28 33 47 59 76 85 117 137 141 168 140 111 88 54 52 45 57 74 93 116 121 128 151 154 133 124 116 124 103 117 80 103
35 26 33 13 34 21 15 39 55 35 18 18 40 39 50 58 61 65 77 94 98 93 99 107 102 71 67 58 73 49 57 48 60 94 103 112 132 154 159 153 143 132 131 145 126 119 120 121 183
21 25 26 25 12 31 10 23 38 43 52 41 36 34 50 76 102 108 107 110 122 133 94 70 70 72 65 80 66 41 47 61 103 118 129 160 188 199 178 165 156 158 145 139 127 126 126 111 158
27 22 14 7 64 71 16 16 39 65 67 78 71 75 70 80 122 144 122 86 82 65 51 61 129 117 82 70 53 53 76 88 94 124 160 215 204 197 162 148 142 131 113 109 124 117 100 110 124
11 33 3 -5 -33 6 31 0 60 74 86 90 97 108 127 150 164 130 81 102 99 99 124 153 135 116 103 56 93 107 97 108 140 165 204 204 179 155 139 133 116 105 106 113 119 134 138 157 173
37 10 11 -1 -5 32 38 26 106 92 101 141 166 152 161 168 128 123 144 107 79 93 124 109 132 151 148 153 147 153 142 108 124 148 160 139 132 123 130 123 118 115 126 146 145 152 157 164 192
42 40 49 42 40 14 79 29 54 69 67 152 172 162 181 189 188 167 114 80 85 117 134 139 179 213 213 214 211 206 173 135 149 180 164 148 131 121 106 118 110 117 145 157 175 182 180 169 160
1 -36 -19 -9 15 10 70 41 6 69 84 136 161 186 195 200 180 140 99 88 136 142 165 192 206 232 234 224 195 173 159 130 128 141 128 108 114 109 101 100 108 139 173 205 228 232 141 110 133
-66 -20 14 23 26 26 58 20 49 87 104 98 103 127 161 169 152 124 117 112 162 186 208 206 206 232 240 212 173 108 112 106 114 122 115 104 105 99 92 91 97 135 155 214 181 111 130 133 102
42 11 100 65 48 4 -11 13 -11 68 57 85 161 216 204 166 150 158 168 170 180 221 263 263 263 260 283 230 159 72 103 119 90 78 96 100 90 88 89 90 98 112 203 148 148 160 137 126 94
69 88 12 16 -4 2 10 39 4 25 68 91 179 213 179 172 187 196 203 200 230 272 297 295 265 244 213 129 39 93 108 88 84 95 92 79 77 78 76 82 97 156 154 65 130 139 112 113 77
62 22 54 50 41 32 41 18 38 26 38 71 113 143 155 181 190 205 223 249 283 298 294 270 249 209 87 56 73 112 111 95 94 84 76 70 66 73 71 76 102 159 111 147 90 82 104 83 58
63 41 43 3 5 45 36 1 34 18 25 42 64 104 136 164 201 224 258 294 320 303 282 251 201 98 79 85 124 117 121 100 83 79 71 73 68 71 74 84 115 116 110 79 63 90 90 71 69

GFSSGP_con_3kmhel_015.txt.gz
Helicity
12 8 12 15 41 47 18 -16 74 84 116 175 164 148 246 393 206 165 186 195 121 64 61 27 36 43 48 27 35 56 64 60 63 65 56 37 28 25 18 10 1 -3 -1 2 5 8 11 14 12
1 26 14 8 51 3 0 29 87 177 195 95 150 158 329 322 137 75 113 35 87 59 47 32 53 41 36 24 47 62 62 61 60 64 47 33 27 19 12 4 -6 -8 -10 -5 -2 4 10 10 8
21 15 17 24 9 -3 17 76 178 172 65 116 89 228 273 218 145 118 49 73 58 34 12 48 53 41 18 29 50 66 67 66 64 55 39 31 20 13 10 3 -6 -5 -3 -4 1 7 8 7 4
16 33 28 33 -13 -4 57 81 129 62 70 37 45 85 85 26 40 30 25 56 42 44 30 68 64 31 10 33 60 65 84 77 71 51 36 25 14 12 6 4 3 11 7 12 10 7 7 7 6
15 -1 2 0 -15 34 38 107 -48 274 123 51 22 30 -12 4 83 33 42 72 79 75 57 29 55 21 18 37 60 90 86 77 62 46 30 20 15 8 9 9 13 7 8 7 4 1 9 14 11
13 -13 -6 -23 -12 67 14 102 109 119 94 44 56 18 9 -34 -18 87 108 194 85 6 0 57 10 12 23 59 84 87 75 65 53 35 21 20 13 11 14 10 6 15 16 13 3 10 18 17 12
-9 5 2 15 53 11 40 99 85 140 115 44 -9 32 24 3 11 24 108 32 71 -33 43 10 33 30 66 79 86 82 61 47 41 28 16 13 13 17 11 11 17 29 25 14 9 7 8 9 2
3 24 10 12 99 235 112 85 105 67 143 204 -2 -7 -16 45 50 40 17 -45 -40 -33 17 25 12 18 37 64 89 62 42 35 23 13 12 9 6 3 5 9 30 28 25 21 9 3 -2 -16 -13
40 15 -15 17 61 62 40 72 82 41 130 43 27 -10 86 104 53 39 47 37 53 52 31 14 12 26 22 33 32 23 21 12 -3 -6 1 5 -7 9 29 42 29 27 28 27 20 12 -3 -4 0
10 -20 0 137 109 26 65 79 40 118 103 -17 -9 51 54 34 13 10 10 28 25 37 38 40 57 52 39 30 12 22 16 1 8 11 12 9 22 22 8 19 25 22 25 27 23 22 7 24 46
15 48 43 15 36 13 74 113 31 46 53 -40 21 63 33 7 0 -1 7 18 21 43 44 31 28 28 14 20 6 0 3 6 16 21 32 48 35 51 39 27 21 35 42 12 41 44 48 79 56
42 26 28 54 16 22 -17 -21 114 102 -3 190 67 63 18 16 -1 -4 -5 12 29 12 34 22 14 12 40 16 14 26 25 12 23 30 15 32 48 78 97 65 64 30 46 49 58 54 98 68 60
32 14 69 38 40 43 70 107 2 -30 16 70 66 13 22 19 11 11 13 17 27 10 18 8 14 22 26 34 55 87 91 73 33 19 39 68 107 185 121 109 87 57 58 48 63 77 131 93 70
4 32 14 2 -5 8 -21 3 49 28 41 65 27 14 16 11 13 12 7 14 -1 8 21 22 27 35 36 82 129 127 142 78 9 1 37 38 101 152 82 79 31 71 56 65 94 140 87 84 93
25 20 -3 2 1 12 -10 8 69 39 36 36 16 17 8 12 17 18 16 9 -1 12 42 34 52 55 77 143 147 165 324 147 69 26 14 33 103 137 135 93 110 74 111 74 97 131 143 137 117
40 -5 2 31 5 -6 1 78 57 24 18 13 24 17 20 21 11 22 16 10 15 23 61 62 67 83 125 151 213 157 142 44 -79 -5 24 46 84 83 73 82 92 114 108 134 154 138 156 121 134
30 7 26 48 -9 27 7 98 65 3 -13 22 25 41 39 27 22 28 13 9 22 43 85 93 88 141 166 186 171 121 72 30 21 33 45 31 39 51 50 113 142 102 107 129 100 151 101 126 115
25 12 36 34 18 -4 -15 92 64 4 8 18 23 30 47 40 38 33 25 31 20 64 117 114 84 210 149 144 114 93 56 64 37 43 50 31 57 73 82 127 107 86 109 127 178 126 128 119 105
17 -5 -7 63 42 -34 9 37 33 32 18 21 12 29 47 47 57 40 49 52 71 111 111 176 132 134 89 93 91 97 97 91 61 64 60 64 98 97 107 140 130 122 127 151 110 106 107 98 109
12 6 59 27 -4 18 5 26 54 36 21 24 24 33 43 83 61 79 78 86 100 127 152 118 102 93 58 101 93 70 88 71 95 98 91 124 134 154 138 154 134 175 141 117 112 125 121 104 105
4 -5 25 19 23 21 12 65 52 31 34 10 18 31 43 105 102 115 120 109 107 94 109 83 72 94 104 125 109 98 103 95 97 97 79 154 150 172 159 161 147 130 116 125 131 121 153 123 144
20 52 -26 17 11 43 16 20 68 92 82 65 54 62 92 109 135 129 158 152 124 110 87 97 117 116 111 64 102 94 84 138 228 184 200 128 152 121 116 128 124 122 117 114 113 124 246 144 169
56 -9 27 6 19 21 6 -3 201 11 74 101 118 106 139 149 150 174 203 210 150 118 118 144 126 132 142 175 158 164 198 180 180 138 124 129 162 189 162 147 162 133 116 121 159 169 166 177 182
29 24 8 11 6 -8 13 11 90 73 50 102 125 151 175 177 183 221 280 197 145 145 147 150 151 178 205 246 274 279 244 230 202 164 186 209 175 144 141 142 122 106 119 124 153 190 186 256 214
-12 -9 -1 -6 -4 -14 43 44 2 26 77 69 157 133 158 166 206 275 256 170 138 147 166 173 193 215 240 269 304 314 276 254 261 99 189 156 144 134 135 120 111 110 119 174 214 217 208 137 195
-15 18 5 -8 30 22 79 38 42 142 123 34 156 125 131 127 168 204 193 177 152 151 170 192 198 261 299 324 330 279 231 175 63 154 140 125 117 123 121 106 95 93 125 237 209 130 88 130 123
12 2 53 49 43 26 18 9 103 83 74 43 117 135 146 136 186 180 192 192 174 143 199 214 236 302 317 318 250 180 71 124 118 114 91 119 120 109 107 82 73 118 163 162 97 69 91 59 131
47 73 32 45 33 -4 17 6 28 42 25 37 101 130 131 131 173 189 235 222 198 178 204 267 287 305 291 237 191 102 97 105 122 95 121 118 99 79 79 79 86 112 149 72 91 126 74 125 116
42 5 33 65 54 5 4 25 102 37 24 36 50 114 127 118 147 188 208 217 215 230 268 270 324 329 239 226 115 95 100 125 102 108 107 97 76 69 77 90 102 96 103 124 100 87 67 99 68
96 33 12 1 1 36 51 10 40 53 11 35 45 93 114 112 142 190 193 206 247 265 267 323 375 322 233 168 106 104 146 120 108 99 89 93 66 78 81 91 90 81 127 71 64 59 46 57 97

GFSSGP_con_3kmhel_021.txt.gz
Helicity
20 11 38 56 90 87 29 36 17 51 155 110 154 155 163 158 154 198 135 127 200 178 115 128 129 95 85 82 76 75 67 59 62 55 55 53 55 47 36 27 18 19 20 15 8 3 5 3 -8
15 43 68 88 79 47 47 65 110 134 130 183 262 114 160 142 91 155 217 176 243 257 230 130 112 84 75 71 68 59 56 58 58 59 53 50 47 40 32 26 27 21 16 11 10 9 5 -0 -0
23 37 81 87 55 38 26 7 41 116 258 191 136 183 131 129 97 149 200 193 232 218 165 115 98 85 76 77 68 62 58 58 53 55 52 51 46 41 42 40 38 25 15 6 4 1 -2 -0 15
42 82 98 62 -4 25 83 31 101 288 370 225 116 161 186 145 97 100 314 216 206 152 118 130 86 63 71 65 52 58 64 54 58 57 52 48 44 42 52 59 44 25 15 15 11 4 -4 -7 8
56 83 69 55 19 81 -4 189 208 244 128 153 137 159 99 112 144 157 195 329 388 280 211 166 121 75 73 57 45 69 56 50 49 44 48 42 44 58 63 55 39 33 26 20 16 6 -9 -19 -17
71 61 78 12 -36 -15 184 118 163 220 203 188 191 219 104 114 216 234 221 227 381 361 304 237 143 50 46 39 39 56 54 51 44 44 43 39 43 37 44 45 39 36 27 21 20 7 -10 -14 -25
64 100 55 60 61 14 125 228 183 69 50 113 196 161 141 235 147 195 201 262 255 290 226 162 123 40 -35 13 41 42 54 43 33 26 10 12 13 20 33 39 46 45 36 30 20 7 -2 4 -12
54 47 65 113 57 85 113 101 110 15 69 71 87 86 172 167 199 271 225 150 238 258 159 144 -8 -46 22 14 43 47 27 9 -6 -8 6 6 9 24 27 36 47 49 37 31 23 10 13 31 29
17 125 91 54 -7 -19 85 114 19 -2 66 115 144 174 162 110 145 181 204 180 133 20 1 -75 -124 -24 17 12 -17 -17 1 4 -1 5 11 3 -6 -4 15 18 35 22 25 28 27 5 23 36 32
40 45 45 -10 -46 -59 68 189 97 11 133 175 132 159 83 102 157 121 2 -64 -144 -137 -154 -40 -51 1 -68 -58 -23 -14 -15 -22 -1 -3 -14 -23 -18 -31 25 26 15 20 64 45 46 63 32 72 80
39 81 29 -43 -19 19 55 148 178 102 137 62 119 58 32 49 84 103 -51 -96 -173 -110 -61 -33 -12 -32 -9 -14 -14 -34 -37 -40 -6 17 2 15 60 102 89 84 95 66 49 103 132 96 115 119 134
6 132 57 140 91 6 -17 -4 54 29 107 -15 -22 -74 -46 27 92 33 -135 -115 -153 -81 23 14 -7 -7 -40 -38 -32 -20 -12 -9 55 112 110 138 166 112 102 113 111 135 140 168 165 128 81 131 170
-9 19 88 76 11 43 -32 -37 -4 17 53 -8 -4 -22 -8 -25 26 -67 -122 -64 -16 66 42 23 5 -42 22 60 86 55 50 71 80 121 138 118 114 92 85 112 110 119 94 119 128 131 115 131 133
18 26 171 51 55 13 54 -1 -5 -23 25 -11 -14 -22 13 -14 39 32 48 49 57 45 12 21 18 81 134 127 108 105 104 114 124 157 148 142 106 101 127 118 106 101 75 79 92 90 124 154 156
36 38 8 57 -32 45 43 -26 -0 -34 15 -12 -15 -4 -26 -37 82 107 93 58 41 13 -8 13 25 111 133 144 162 143 131 119 84 60 82 50 13 37 79 113 120 91 117 101 130 172 164 184 180
54 42 16 58 22 60 15 -59 -19 -48 -9 -100 16 -14 -39 3 85 122 122 108 58 30 24 20 44 114 143 160 161 144 100 46 32 40 -4 -24 36 75 92 90 91 90 137 154 151 135 121 130 143
15 73 43 2 47 46 64 54 7 -39 9 -74 -9 -3 42 93 125 104 118 159 123 78 70 92 113 174 176 182 195 149 93 42 46 37 54 96 98 102 72 53 56 89 143 147 128 133 128 114 98
43 18 105 69 -26 26 11 85 212 126 250 30 -31 -21 30 111 89 86 53 181 236 212 139 126 241 246 212 175 213 168 137 56 56 77 95 83 88 100 95 123 130 147 149 148 147 150 125 102 92
16 1 -15 10 15 37 63 137 205 280 190 54 -115 -97 75 176 133 113 99 140 263 318 311 266 295 272 235 168 236 149 148 154 161 146 169 137 97 126 132 119 151 153 142 133 125 106 107 102 117
-3 12 85 47 7 1 61 58 80 247 106 1 57 145 32 61 168 151 145 237 363 401 272 287 294 247 164 156 121 116 134 160 146 176 184 182 171 151 120 120 142 141 120 129 118 118 115 122 157
18 8 34 53 27 -4 1 47 42 9 44 155 200 185 51 132 326 231 188 251 425 474 353 270 274 195 169 103 132 207 232 267 238 247 237 183 222 216 234 269 182 173 148 120 101 109 142 137 147
-1 24 41 16 -5 9 -1 -4 190 103 16 65 186 115 77 263 332 383 305 297 394 389 230 180 154 152 119 134 271 331 296 274 229 292 274 285 239 230 255 306 217 203 145 135 135 139 145 175 198
-21 -17 16 5 -17 42 96 69 -52 69 100 2 -17 106 202 294 335 391 380 288 218 212 183 55 153 183 174 177 292 327 412 455 507 532 436 309 281 302 345 310 218 161 140 138 145 147 214 222 210
12 47 34 18 6 28 41 135 93 127 155 37 -20 15 127 220 285 293 294 308 279 240 255 272 288 335 379 410 443 450 531 524 509 403 347 290 270 337 289 230 183 155 137 140 144 179 207 204 205
50 30 76 72 70 -51 90 74 73 137 80 137 90 64 98 270 377 492 560 417 481 436 383 402 408 406 417 476 554 555 520 423 361 322 275 263 273 273 222 190 170 138 154 159 153 168 164 172 168
21 14 45 39 8 -58 -4 26 29 100 106 46 86 73 121 314 350 448 506 443 413 411 395 393 415 401 396 412 466 468 420 377 333 300 260 271 262 239 224 193 152 158 157 149 149 140 141 150 166
35 30 54 76 31 58 -6 -24 57 71 51 70 143 142 236 327 376 390 408 431 391 352 320 345 397 383 372 382 391 371 372 348 327 290 270 251 223 214 202 162 160 138 126 143 154 155 129 149 151
20 24 79 88 16 21 12 35 28 66 62 33 111 150 309 392 399 429 444 457 424 342 259 304 383 382 362 360 324 318 306 288 273 257 251 236 241 173 161 154 144 114 102 110 126 135 124 120 123
30 50 70 72 73 33 35 62 15 42 54 59 75 242 364 424 452 449 437 472 466 428 341 302 409 456 450 402 327 289 258 244 235 254 242 247 191 168 139 127 108 79 77 93 118 147 113 153 161
39 24 41 87 55 89 58 22 37 49 22 32 27 177 283 375 420 461 502 554 552 539 475 396 453 552 529 426 336 266 238 206 238 244 198 194 169 147 141 115 88 78 122 110 92 93 125 144 200

GFSSGP_con_3kmhel_024.txt.gz
Helicity
37 34 45 79 112 117 67 31 23 79 68 115 102 155 152 202 154 113 92 51 109 135 165 208 181 134 98 90 75 68 75 73 73 76 76 72 60 50 42 38 31 31 32 31 26 24 23 16 38
33 36 88 106 117 96 44 19 46 82 100 120 156 89 111 33 51 51 167 99 201 195 179 147 167 176 133 89 73 67 61 58 63 80 70 65 53 50 46 37 30 25 29 25 18 21 28 31 66
41 56 85 100 92 56 25 19 55 105 147 106 80 134 109 50 -17 62 109 179 183 197 212 188 228 192 106 91 71 64 49 46 58 77 56 52 43 47 49 43 27 16 16 7 4 11 24 43 85
61 83 96 80 30 25 16 72 73 126 176 167 99 130 96 76 81 75 186 220 273 244 245 238 193 137 96 76 55 35 28 30 54 60 45 46 49 52 43 20 12 15 12 17 22 27 31 50 71
67 61 98 52 36 -3 31 40 117 130 121 161 137 117 119 142 156 214 250 259 312 318 216 175 140 129 97 55 34 11 19 39 56 55 41 30 38 41 38 29 25 19 26 35 33 42 47 57 43
74 61 73 13 33 26 20 25 48 72 56 99 134 142 95 92 143 212 343 269 281 290 269 289 237 193 133 14 17 -11 12 53 48 34 13 24 32 36 40 38 36 33 39 42 47 50 50 33 21
30 39 7 51 83 74 28 98 62 91 70 87 73 98 98 190 191 303 322 286 405 411 371 291 220 262 40 -6 -34 14 46 35 -3 1 11 20 23 36 41 49 47 40 41 40 50 60 51 42 23
41 26 62 70 141 -4 2 38 79 63 75 27 92 60 137 177 299 246 303 192 204 178 142 29 75 -29 -130 -44 23 5 11 -22 -11 6 2 16 26 40 44 49 42 46 61 57 68 68 51 51 61
36 39 72 98 92 -17 -52 -25 10 95 157 195 169 125 158 176 125 138 69 104 55 32 81 34 -2 -79 -60 -38 -17 -16 -21 -24 -12 4 25 30 19 42 52 40 65 88 56 54 90 80 113 106 93
31 26 74 24 -18 -45 -44 6 102 99 162 172 220 256 145 117 48 -60 -17 39 17 -136 -133 -212 -121 -116 -88 -17 -27 -26 -21 -34 -24 8 18 28 52 86 72 81 95 67 98 94 120 133 162 166 112
31 66 23 -11 -90 -125 -47 14 71 106 82 55 135 184 195 100 21 42 -44 -72 -146 -67 -168 -180 -143 -47 -35 -21 -29 -25 -15 9 43 59 63 54 63 71 70 77 83 86 138 185 159 168 183 146 130
55 58 80 34 -40 -49 -8 -6 51 61 42 47 84 157 243 100 14 -85 -22 -147 -70 -103 -87 -40 -34 -20 -22 -31 -26 -13 32 57 78 82 82 73 52 81 112 121 151 166 162 175 171 151 142 159 178
97 80 46 48 -13 -3 56 12 12 48 129 99 72 99 101 80 19 -40 -73 -139 -100 -59 -17 -0 7 22 2 13 -15 -21 36 45 65 100 100 113 122 129 125 125 162 177 143 149 157 155 147 145 150
115 10 42 6 32 38 -8 7 7 -27 40 -12 10 38 82 2 -70 -72 -47 -28 5 24 15 -9 14 -7 12 -27 -14 34 57 79 98 117 133 159 158 147 170 160 175 159 130 159 141 138 141 144 147
-8 80 26 1 -64 -17 -32 -9 18 -4 43 3 -45 -18 86 23 -65 -28 -16 -1 37 30 15 -5 -9 4 33 56 96 103 92 89 98 99 129 149 160 150 137 141 155 165 136 140 141 144 141 153 134
32 69 30 -21 -68 5 8 -29 9 69 58 -35 -50 -44 81 97 53 1 13 54 52 42 24 17 28 88 156 160 154 134 113 95 82 78 102 116 142 110 119 126 136 111 132 129 119 115 110 93 91
60 37 -1 16 25 13 8 48 55 37 51 -22 -46 -33 84 98 108 95 65 32 37 81 29 89 108 171 214 208 170 165 126 84 46 67 78 88 89 106 133 129 124 119 120 117 115 98 67 73 88
90 95 28 18 37 91 35 30 107 27 63 6 21 44 45 201 173 146 96 22 40 64 53 122 140 192 203 212 193 174 179 128 91 102 110 127 149 170 144 126 114 98 85 104 81 101 103 80 68
49 74 43 12 51 48 87 167 134 65 54 41 92 45 54 175 152 138 134 128 110 77 132 171 195 183 253 262 253 215 225 192 164 142 168 183 166 139 136 115 96 68 103 93 100 115 99 73 87
2 70 15 32 33 67 103 128 116 112 65 83 105 102 50 81 200 221 206 252 270 206 154 176 207 207 218 227 246 213 230 179 187 196 199 182 181 161 176 119 149 178 167 144 161 138 101 83 103
-18 89 25 21 53 88 105 123 117 -20 -22 -15 6 35 113 238 274 334 320 347 378 316 283 239 227 214 195 208 273 274 304 327 259 237 213 194 202 145 173 178 213 225 196 143 123 113 114 116 132
37 57 39 50 69 52 55 58 59 9 -33 -2 27 44 103 212 266 420 436 409 449 398 316 260 221 241 185 277 275 310 322 290 224 239 258 287 242 232 236 249 277 251 185 191 168 159 152 154 154
-14 -18 13 31 56 35 32 2 53 104 129 15 51 38 43 108 282 399 483 467 408 342 342 261 254 225 261 236 232 273 289 264 318 329 352 302 284 270 257 284 272 220 204 188 177 186 198 169 163
39 29 32 61 29 64 40 50 6 -24 135 279 141 96 66 64 246 351 481 383 319 264 228 226 266 241 250 226 230 323 418 423 469 432 372 320 305 295 284 258 250 223 200 162 150 149 170 157 155
36 43 56 68 88 43 45 27 -40 -32 -18 9 133 144 109 167 319 421 477 385 353 294 218 247 304 247 219 314 336 410 498 511 482 405 356 351 363 312 271 194 185 181 175 147 147 167 161 150 154
28 63 47 48 53 16 20 6 25 4 16 18 2 125 191 254 337 445 394 344 337 330 342 460 426 367 332 416 417 468 454 429 394 365 363 355 275 222 201 280 201 169 159 135 148 158 145 157 154
41 26 25 87 89 55 21 -0 35 -0 8 -0 65 96 128 177 349 408 404 371 395 360 424 418 444 443 387 424 451 446 426 405 382 338 330 300 220 211 220 227 195 130 134 139 136 132 124 139 129
71 30 50 74 60 30 28 35 21 24 14 1 43 86 131 200 279 334 392 382 375 359 339 391 443 435 392 386 386 375 348 339 324 301 249 222 237 206 259 197 159 141 155 146 157 126 108 120 114
83 23 51 81 90 45 28 39 17 -1 14 3 18 78 163 242 275 323 347 370 385 424 443 431 443 445 438 434 442 434 366 309 297 293 273 268 266 232 149 243 148 155 129 131 124 103 77 97 123
-2 13 82 91 76 96 58 33 35 20 67 38 19 41 118 225 281 330 384 411 406 423 488 492 475 476 451 464 474 437 395 332 302 293 276 288 237 230 188 224 156 110 107 86 91 89 95 115 152

GFSSGP_con_3kmhel_027.txt.gz
Helicity
44 46 64 112 108 137 113 70 37 41 -3 45 51 82 109 150 156 109 72 124 191 220 169 199 177 174 174 147 96 103 97 73 81 95 99 74 72 37 31 37 41 41 35 43 56 73 93 95 85
33 36 86 101 117 114 61 30 61 32 118 124 131 113 118 94 82 59 167 90 145 176 191 176 149 165 172 189 145 132 76 68 72 73 72 55 53 36 31 29 27 32 43 54 63 93 124 140 127
33 57 82 111 95 41 22 25 2 41 73 35 34 64 58 56 3 -24 48 93 115 136 157 166 197 187 155 190 146 86 57 56 53 50 50 50 43 23 21 25 39 40 57 64 66 77 104 118 83
39 74 83 98 61 17 21 32 28 63 45 89 75 84 46 59 -13 7 101 132 188 200 152 188 189 179 158 147 97 56 50 46 38 37 34 33 36 28 24 47 47 65 65 73 73 70 74 67 63
65 58 73 84 43 31 20 33 47 70 61 85 22 57 54 56 125 156 216 221 287 223 135 181 195 155 132 103 60 39 36 20 28 30 31 41 40 39 54 55 57 47 62 55 54 59 54 71 61
70 38 68 48 42 56 36 18 2 40 38 34 55 65 69 66 210 228 290 250 264 292 211 143 162 126 90 55 21 20 12 5 26 39 46 53 49 49 50 36 30 43 46 44 48 50 69 69 61
46 48 22 51 85 90 32 -1 -11 2 26 58 85 101 92 198 230 260 328 353 438 320 240 189 246 149 98 45 54 18 -13 3 40 34 20 38 55 51 38 34 52 56 61 59 74 76 78 96 83
25 29 30 68 119 102 -21 -12 38 49 57 101 112 38 91 154 192 241 273 319 380 396 400 520 382 273 123 52 38 -38 -4 35 30 44 52 36 47 37 35 60 75 81 98 97 95 91 94 111 122
17 38 45 54 32 79 -7 40 65 75 105 125 141 137 176 138 170 208 202 250 153 185 138 110 183 240 205 185 -29 6 26 42 59 30 16 31 44 64 98 86 104 116 102 84 91 149 134 113 124
19 21 24 30 14 27 -14 -0 10 65 110 142 139 158 125 89 96 126 149 179 201 200 29 -52 -176 -163 -112 25 8 40 40 54 12 -13 50 89 93 85 109 100 115 97 113 139 182 179 165 134 96
9 33 34 59 23 -48 -61 -38 32 71 36 51 112 117 32 108 23 -41 18 39 -3 -46 -211 -289 -223 -151 -113 -36 16 3 -24 -19 -8 43 68 70 62 65 93 82 75 107 141 150 157 175 159 150 129
37 29 75 49 23 -3 -28 -0 48 38 27 148 86 26 74 89 -60 -82 -18 -52 -128 -218 -150 -112 -68 -38 -47 -24 -17 2 8 45 27 19 47 61 84 102 113 127 119 136 153 170 168 153 148 160 169
95 83 36 25 26 -15 17 11 10 67 128 119 39 -111 -66 -150 -131 -95 -14 -25 -45 -61 -40 -3 -20 -16 -10 -17 3 15 9 29 34 24 34 74 87 99 119 134 173 193 174 164 165 143 134 144 155
37 27 29 16 19 7 9 -26 5 -1 101 63 25 -10 -27 18 6 -34 27 34 -3 18 29 26 2 -8 -17 -8 3 -2 18 24 53 75 69 106 135 157 182 191 202 194 160 150 135 131 138 147 148
-8 23 15 32 -17 10 53 -10 26 97 74 83 49 -6 -23 -40 -55 -5 53 42 41 19 27 2 -16 -26 -37 -32 -19 29 43 38 73 91 112 153 158 166 188 205 202 162 136 131 128 135 145 154 127
35 11 14 2 18 -19 -4 -14 17 117 89 87 46 -20 -31 -27 -26 -39 2 22 3 6 -7 -10 -31 -39 -10 12 33 70 54 70 89 95 118 136 150 183 219 187 162 138 136 122 115 118 112 111 99
55 26 20 18 30 -9 -12 19 60 90 32 61 59 28 -10 -22 -35 -49 -1 27 37 6 9 11 16 23 57 79 102 99 99 120 104 110 127 133 149 165 170 150 139 137 120 103 89 70 53 56 65
50 64 46 15 -17 25 -8 27 139 86 50 26 69 25 51 43 89 38 15 -8 4 40 40 63 44 75 128 158 168 140 149 161 145 118 146 140 161 146 153 147 124 91 97 90 47 14 79 49 37
33 56 62 18 -13 49 84 82 159 130 75 33 66 120 86 134 71 79 31 14 9 39 94 94 112 137 228 249 248 216 206 196 180 154 171 164 166 155 154 132 121 114 94 59 38 35 65 61 80
95 51 107 74 4 85 63 75 122 133 66 81 122 118 141 125 93 71 61 42 98 126 134 137 146 206 228 279 253 247 241 198 170 181 181 171 167 157 147 120 120 82 76 108 81 76 70 84 104
11 74 99 93 23 56 90 58 50 63 33 -8 36 51 106 192 210 164 151 119 113 143 180 195 190 223 241 238 279 300 304 291 279 244 235 188 183 170 157 144 144 166 123 88 74 102 127 110 118
105 7 50 77 32 29 67 39 38 17 -18 -59 -8 41 86 190 217 203 188 184 191 225 163 160 205 225 241 245 313 344 376 329 288 271 252 245 212 205 183 168 157 139 134 122 128 130 136 168 167
27 13 30 25 33 66 94 32 -4 32 -36 -47 -21 -20 35 113 202 240 273 262 231 298 252 213 219 236 228 241 300 359 421 291 318 313 318 279 260 250 242 222 189 154 104 138 185 197 179 176 194
14 13 55 58 35 59 37 30 6 42 135 118 49 4 63 198 258 280 306 369 290 289 318 275 286 296 321 310 269 300 270 295 350 335 332 314 334 300 268 250 224 119 155 137 202 174 157 176 176
43 36 42 65 71 24 68 44 5 -22 55 123 122 139 168 220 317 369 390 422 346 301 283 295 293 309 263 350 268 194 235 295 315 342 390 388 369 327 320 253 194 194 211 230 236 195 156 150 155
39 39 66 18 35 45 67 -2 -18 -3 -5 -24 -9 49 64 143 275 358 376 418 336 271 244 271 275 315 284 280 242 231 295 361 394 406 410 411 400 369 287 266 185 163 300 198 201 164 175 166 150
41 61 39 88 93 78 23 18 2 3 37 21 46 86 73 121 181 276 339 427 398 309 264 306 279 257 258 328 317 324 364 408 495 503 483 441 419 420 318 179 188 252 238 175 190 148 158 170 159
59 57 73 92 78 53 39 32 20 44 61 43 25 12 38 72 133 207 307 319 308 268 288 282 247 275 346 366 361 400 455 535 562 552 515 480 430 373 244 264 227 206 221 160 146 144 198 186 152
117 201 136 102 95 63 41 24 -17 40 77 69 41 30 53 71 98 130 157 239 248 277 276 263 296 360 394 412 461 520 522 538 534 490 461 425 350 304 287 248 227 222 185 149 148 185 149 146 126
99 61 64 86 86 93 91 54 52 14 23 36 30 37 45 114 103 115 186 281 339 310 295 272 316 360 421 484 494 453 461 466 447 421 376 325 265 276 265 247 242 209 160 113 142 161 145 154 137

GFSSGP_con_3kmhel_030.txt.gz
Helicity
35 32 44 70 94 85 58 68 53 74 66 -7 63 55 48 103 75 60 29 81 168 230 245 209 177 170 167 156 142 135 129 113 107 94 68 68 52 37 44 54 52 63 84 85 76 65 57 66 51
25 29 68 58 113 99 55 42 51 6 28 31 29 19 50 66 69 47 66 88 159 220 253 203 146 155 178 185 161 141 131 142 96 79 69 53 38 34 46 61 72 82 74 82 78 63 53 55 46
27 47 57 69 95 52 41 33 18 11 64 53 57 70 48 57 35 12 36 137 211 203 201 160 177 182 196 171 132 94 138 102 88 68 58 43 35 59 71 77 73 63 55 54 43 46 32 23 25
32 46 53 86 84 41 7 62 27 43 43 51 39 92 46 58 6 32 110 123 188 196 190 173 160 154 147 128 106 83 118 91 58 74 57 38 57 72 67 63 53 41 53 37 34 36 38 32 31
45 39 59 73 68 49 43 64 7 23 40 48 43 44 62 52 113 145 150 167 161 179 147 157 172 158 110 90 123 54 88 70 71 65 68 47 57 51 45 56 53 44 16 42 36 36 56 49 31
48 32 47 44 49 71 58 7 20 32 38 26 69 88 64 94 144 178 204 226 293 247 198 115 175 122 111 72 90 73 82 37 73 57 61 55 49 52 57 49 47 47 47 51 82 74 68 64 44
40 28 14 47 108 98 1 -9 9 31 42 61 51 66 76 134 125 174 213 255 307 314 300 304 274 226 130 132 82 70 17 59 45 52 64 60 57 51 60 64 55 48 42 61 93 97 89 80 55
45 29 44 58 80 66 22 -7 6 41 54 73 88 21 56 90 163 217 250 261 275 468 384 437 515 317 239 64 44 5 21 36 39 73 67 42 65 81 84 71 66 63 63 72 80 119 120 105 87
40 38 43 34 22 54 12 9 46 60 68 67 55 66 129 168 187 221 264 280 255 239 345 475 509 350 171 96 47 18 -2 37 52 53 40 97 94 89 88 81 76 67 77 91 109 122 148 124 112
26 21 17 14 19 20 45 11 14 29 36 71 85 117 139 148 185 209 220 224 217 247 246 310 428 328 188 95 2 47 62 76 91 92 83 91 86 100 88 86 97 106 134 139 151 156 157 126 96
6 49 55 64 31 14 3 19 0 38 16 6 33 68 104 100 81 114 120 124 62 137 133 205 163 153 162 6 -4 17 41 73 55 4 -11 90 95 90 93 88 96 128 149 146 158 151 120 112 96
54 46 53 42 18 14 0 -19 22 30 -4 43 14 109 112 92 14 13 9 -2 9 -36 3 -123 -243 -56 -74 18 37 43 -25 -8 -6 31 54 52 63 87 84 105 129 139 139 151 121 121 119 134 138
32 29 -1 14 5 -1 21 16 4 -10 -13 -55 -30 -65 53 61 -63 -22 -96 -119 -129 -99 -58 -100 -107 -66 -36 -32 7 23 28 23 12 35 9 49 72 108 132 160 150 142 140 124 138 129 121 127 130
7 25 13 15 2 -17 31 -26 -18 -69 -111 -37 -52 -111 -78 -46 7 23 -31 -69 -49 -43 -46 -53 -29 -15 -2 1 12 13 19 26 -8 7 39 77 88 127 145 140 142 166 151 132 114 102 102 118 121
9 25 33 8 -23 -25 34 -17 -9 38 -45 -20 -71 -93 -57 -14 17 29 21 23 29 1 7 -2 -4 -11 -16 -12 0 -17 -33 14 30 52 73 91 121 134 147 153 162 145 124 120 112 109 116 119 104
19 13 19 25 -8 6 -5 8 52 112 91 34 11 -17 -73 -27 29 7 21 31 26 40 31 7 -4 -20 -47 -46 -51 -38 -15 16 41 80 107 132 135 144 161 174 155 116 109 113 123 122 121 106 90
72 38 35 7 18 -38 13 3 99 114 101 83 4 -11 -47 -29 21 35 52 42 57 58 18 4 -9 -25 -35 -18 -11 18 27 32 67 89 116 135 152 166 180 159 132 119 126 132 120 116 79 57 48
45 66 40 2 -1 105 26 11 152 129 113 67 28 -4 -35 -33 -11 42 60 48 32 24 11 13 6 -3 1 28 51 73 65 83 98 100 118 153 173 169 178 157 150 135 150 132 113 80 60 30 28
48 28 21 28 -11 27 110 97 114 120 93 69 33 4 10 18 -17 -32 -12 9 24 9 12 19 52 55 80 74 107 111 140 117 130 142 134 141 173 176 184 182 164 153 145 126 80 39 26 51 54
23 15 44 35 4 -10 6 54 61 171 67 105 100 60 47 11 -14 -6 11 18 22 26 20 43 70 124 140 153 148 158 178 159 187 194 185 169 206 214 201 188 184 160 142 98 41 13 -11 10 70
47 38 65 41 44 39 30 20 16 62 29 17 47 64 40 64 94 63 69 96 83 93 98 94 132 150 180 228 293 279 333 277 260 283 257 226 228 204 196 210 190 143 95 75 24 -11 62 34 146
44 -4 18 25 43 17 29 14 12 61 63 6 24 36 58 57 28 76 134 96 75 87 105 124 175 203 209 254 300 337 352 338 284 300 247 250 247 257 224 195 179 146 104 70 20 -56 41 139 154
59 24 17 33 48 39 47 54 4 48 73 68 38 62 35 71 102 95 109 120 115 202 158 148 165 182 197 265 299 343 383 381 337 333 318 321 302 241 224 227 195 159 142 67 45 49 200 141 207
29 22 36 62 61 40 42 38 -13 31 74 95 124 74 80 103 131 146 129 156 180 193 244 291 140 90 180 253 313 433 450 379 379 371 323 311 304 304 268 242 199 187 189 153 87 162 239 192 190
29 50 43 57 66 -8 29 41 -36 -14 -22 6 25 116 176 189 240 246 254 261 233 266 296 388 206 132 223 271 384 450 342 294 307 326 351 358 359 320 272 231 255 260 268 168 153 209 207 195 209
50 48 52 37 36 25 56 14 -18 -27 -13 9 -7 16 81 111 218 297 323 372 307 319 280 370 267 233 214 292 332 337 315 290 268 348 388 391 398 353 337 350 336 279 196 176 170 195 195 205 201
39 78 51 82 73 64 39 30 10 34 -2 25 26 19 38 95 115 163 265 310 347 329 275 337 303 295 279 282 247 257 260 275 287 380 436 450 435 445 436 363 326 180 199 183 204 209 206 199 192
65 41 76 91 55 17 24 5 15 41 39 56 60 14 5 41 51 96 169 237 254 227 255 225 274 316 259 242 247 265 236 268 357 431 486 503 458 426 365 337 257 214 217 211 223 210 158 168 165
69 62 118 112 126 49 30 22 10 11 17 70 34 23 6 11 38 64 97 111 165 188 189 229 236 220 201 215 229 257 280 376 417 437 442 468 466 410 362 280 222 217 231 235 196 116 146 159 171
59 29 111 188 129 128 98 1 45 28 18 24 1 6 28 25 39 55 58 38 66 94 103 91 161 219 213 248 297 312 359 385 384 364 408 427 401 360 306 267 245 265 268 239 129 116 147 191 191

GFSSGP_con_3kmhel_036.txt.gz
Helicity
27 11 -1 5 27 57 18 30 78 72 72 60 56 60 57 160 129 131 98 81 84 192 160 121 156 141 165 186 182 160 139 142 132 117 97 86 63 41 14 1 -10 -17 -21 -24 -14 -3 1 7 12
18 10 1 25 15 20 7 72 36 92 85 71 78 61 73 104 149 141 101 47 85 180 186 121 167 181 177 173 161 139 136 126 111 140 121 101 64 28 15 5 -7 -2 3 8 5 4 7 15 11
9 -2 -10 9 11 -3 58 61 81 77 35 40 73 99 106 100 85 111 60 15 62 140 168 135 179 179 163 167 163 144 132 104 121 129 123 95 60 27 23 18 7 10 7 12 7 8 16 14 12
4 14 9 -20 -5 32 68 59 75 38 28 31 53 71 68 -13 32 56 8 111 91 137 152 188 163 159 171 169 149 133 133 115 136 79 134 82 59 36 24 25 15 18 10 3 2 8 16 21 25
-1 -5 -15 -11 13 33 52 58 66 38 55 41 53 58 66 72 78 55 18 72 142 113 188 158 176 174 159 137 132 121 102 134 113 74 114 91 52 55 30 32 23 16 17 10 7 20 42 37 29
6 -11 -22 -3 14 20 50 22 18 32 24 46 45 69 76 85 79 94 106 86 76 161 128 186 175 174 170 148 122 144 102 146 106 141 96 85 73 73 45 36 23 22 23 35 31 40 53 52 29
-32 5 20 15 29 22 51 27 12 7 12 41 53 54 74 103 101 117 144 135 153 151 242 331 318 179 172 238 123 145 115 161 80 144 95 83 105 63 55 44 32 30 37 53 69 71 80 57 46
-20 4 10 18 54 30 25 20 36 41 53 40 50 54 56 50 82 135 168 182 250 251 267 460 483 346 291 213 106 134 141 127 136 133 102 120 117 74 55 46 48 53 64 75 84 94 84 80 52
6 27 8 19 48 60 30 10 9 22 23 45 59 81 89 100 105 153 171 217 215 335 365 465 503 413 342 330 129 80 96 111 139 128 72 56 56 42 23 100 71 86 93 98 92 97 89 68 55
33 33 10 14 32 42 32 28 27 4 24 57 65 94 117 92 91 115 142 186 220 301 444 657 658 538 615 554 448 96 39 73 129 55 69 82 63 80 78 79 92 108 123 106 91 82 46 -4 19
4 40 16 5 10 5 10 30 29 22 25 56 61 109 126 116 123 130 146 192 279 363 536 602 632 554 661 287 399 143 -11 49 72 88 91 59 76 70 55 61 57 74 66 48 50 37 35 38 28
22 7 22 25 9 6 24 20 25 43 55 37 91 99 96 108 68 87 122 146 227 280 355 472 552 524 215 195 120 80 62 41 95 52 42 52 68 62 53 49 64 54 34 60 47 50 51 50 50
19 34 23 13 7 -12 -1 4 2 12 29 81 132 72 70 42 96 129 83 77 158 273 402 558 614 305 285 277 150 137 -6 -32 13 -1 22 31 48 59 55 66 58 65 57 53 50 44 46 47 56
-14 18 -34 17 10 -3 -6 8 -13 25 26 18 -0 42 52 22 43 37 30 26 52 109 120 131 119 161 189 231 -18 -81 -81 -34 37 23 30 47 47 53 61 67 70 66 49 52 49 55 56 65 64
-8 -5 -60 -72 -29 -6 18 43 29 78 61 28 34 -31 33 -31 -3 -18 -23 -26 -10 -57 -77 -154 -3 -17 -20 17 12 9 -29 -0 17 20 36 41 43 52 61 66 60 61 70 76 68 66 71 63 53
1 8 43 41 12 -5 40 -0 59 79 61 24 30 18 -42 26 32 47 31 17 5 5 17 -5 21 34 31 14 -34 -22 -0 18 10 44 36 31 41 62 61 64 71 72 74 71 88 91 74 64 49
14 15 -3 22 46 39 56 9 111 100 91 33 24 18 5 36 33 39 42 35 39 33 25 7 8 11 -11 -25 -25 -24 -66 -64 5 12 18 27 50 54 56 81 95 84 90 108 114 100 85 82 61
18 9 -1 9 -33 60 70 25 121 120 80 63 34 37 37 48 61 46 69 75 53 55 52 45 26 21 9 6 7 -9 -14 -28 4 7 11 27 47 61 70 99 117 114 127 130 126 118 117 101 64
5 1 18 25 15 25 51 59 87 107 80 43 49 26 31 31 28 27 41 72 51 45 34 38 36 27 14 -13 -35 -51 -52 -15 5 20 30 36 54 71 92 116 132 129 141 159 149 145 132 117 47
-8 -3 11 11 26 3 10 29 21 83 70 35 33 38 21 14 7 12 29 54 78 57 46 31 30 24 8 -19 -32 -25 -28 17 25 44 58 69 79 90 106 119 130 142 174 179 172 162 161 122 55
-8 -14 19 27 29 -12 5 18 9 31 26 29 14 -10 14 12 6 3 16 37 47 45 37 26 13 -0 -12 -18 -19 -18 46 48 66 83 95 107 113 123 122 134 158 174 184 180 179 155 108 109 77
-9 24 36 25 6 18 18 14 22 20 27 36 24 17 -3 -7 1 5 12 21 38 34 20 12 -4 -16 -11 -1 6 24 32 47 66 110 136 157 152 153 146 161 179 194 201 184 165 146 84 38 55
15 2 22 43 25 35 23 18 87 21 -2 37 52 45 18 8 -0 12 23 29 13 27 38 28 15 15 28 31 31 52 47 73 95 111 191 212 202 182 187 195 206 197 198 193 175 138 75 69 79
54 4 21 36 30 17 36 22 16 32 -2 -1 21 53 25 11 -7 -35 -38 -8 19 36 48 57 62 40 21 58 102 54 40 100 180 170 205 264 245 232 224 225 185 184 206 201 164 146 125 101 75
-6 24 26 21 32 13 66 34 -12 22 32 7 19 12 27 7 -3 -36 -28 -2 32 85 84 77 105 111 93 168 143 107 68 88 142 153 257 309 375 325 260 230 203 208 213 220 193 156 117 33 90
-0 3 37 45 30 37 43 14 20 52 32 36 16 14 35 12 -0 -20 5 24 37 71 100 119 161 263 364 261 143 121 76 130 161 151 265 411 377 301 252 231 201 207 253 215 194 142 150 94 109
35 -13 69 75 76 47 36 27 -15 35 28 22 24 13 16 11 20 -2 -11 -14 6 36 92 125 168 220 309 219 122 120 129 139 129 176 251 323 273 239 219 198 222 257 223 215 204 199 89 120 133
49 74 63 95 68 45 60 37 17 23 53 38 28 29 36 31 28 32 39 28 8 31 35 62 83 98 197 203 109 96 97 90 89 146 199 235 216 196 211 181 227 276 253 246 181 182 152 176 121
68 48 105 96 99 63 39 37 54 26 33 23 39 28 36 42 28 27 48 67 56 58 48 62 51 61 99 97 139 94 67 63 83 126 136 194 214 209 247 209 239 302 325 249 316 189 312 289 158
-2 8 15 27 78 69 62 13 64 41 23 4 29 35 25 19 30 31 45 74 71 68 70 77 99 85 70 59 59 58 67 89 137 149 157 182 187 176 189 195 264 397 262 245 264 378 337 212 145

GFSSGP_con_3kmhel_039.txt.gz
Helicity
14 30 22 -2 -1 24 -21 -2 42 60 41 63 158 44 15 130 100 68 61 113 130 220 156 153 162 172 148 144 157 135 120 109 90 86 74 48 34 16 -1 -11 -18 -15 -14 -7 0 7 7 0 -6
-34 -4 9 -34 -4 -26 45 6 65 12 91 55 72 57 61 148 233 124 83 69 195 178 137 155 187 163 146 147 153 138 118 104 100 85 61 37 34 27 11 -5 -17 -15 -11 -1 6 5 2 -1 -6
-7 -6 -24 18 21 -14 46 76 36 70 45 38 58 68 112 98 218 287 152 25 152 162 120 203 190 148 137 147 149 141 124 108 95 82 55 43 49 42 25 15 10 11 3 5 8 5 2 1 -7
-1 41 29 -8 -41 -11 51 44 60 37 49 11 14 83 72 75 81 137 61 -18 76 224 230 100 179 186 154 168 158 136 114 110 108 81 50 60 61 46 38 35 22 18 14 14 14 16 9 2 -5
25 4 -5 28 -1 38 37 35 34 39 45 67 22 8 116 64 45 -4 3 15 113 102 180 163 155 156 175 172 146 135 144 119 102 96 53 79 74 52 48 42 33 27 21 21 25 20 13 2 -7
-8 21 3 19 41 34 22 53 10 34 40 26 -8 51 51 79 68 82 39 12 66 185 226 206 141 178 188 159 142 139 134 123 91 105 71 112 92 58 54 37 41 38 32 33 32 25 20 14 2
10 -14 22 21 22 93 60 40 40 58 35 63 104 72 49 99 105 90 114 146 115 181 236 332 81 169 232 209 169 157 124 143 129 125 108 131 96 59 53 42 54 64 61 46 43 40 37 29 9
-10 12 27 7 -3 -26 21 26 41 59 88 51 67 36 35 62 81 118 141 202 194 204 323 458 302 178 227 227 208 215 152 163 167 100 119 135 76 62 50 55 65 72 73 56 50 50 45 24 6
31 33 13 17 33 -14 13 4 46 37 32 58 99 139 128 126 98 121 142 161 271 293 345 467 410 493 402 433 175 108 152 131 142 129 62 69 47 33 24 90 66 72 80 69 51 54 36 30 7
0 13 16 32 25 28 5 34 73 43 45 35 56 102 110 133 103 118 131 174 224 342 359 423 438 528 613 340 275 89 37 64 131 71 4 56 76 30 61 73 84 85 87 63 43 19 5 7 9
0 0 33 -7 43 26 24 13 52 27 -13 79 52 80 83 117 132 136 146 171 215 326 374 476 474 545 513 413 325 218 196 108 151 77 96 135 100 93 57 45 39 40 42 39 22 3 -4 34 21
-13 2 -8 12 38 24 20 47 37 71 68 118 70 76 78 114 107 98 130 181 264 311 303 501 713 782 807 676 374 259 77 144 121 60 89 64 64 12 15 -21 36 32 24 32 20 37 39 32 27
14 -17 -15 -3 23 15 19 36 30 64 73 38 44 79 83 93 123 103 93 183 220 381 422 601 644 662 874 900 435 658 486 93 24 19 38 19 16 27 -13 47 37 45 59 31 47 39 36 31 34
11 -17 -18 -43 -29 -1 -3 14 20 82 71 52 37 62 34 83 75 74 86 149 207 276 313 365 404 409 313 284 281 198 -15 36 -16 -26 18 19 18 -4 37 45 69 62 46 42 45 47 39 47 45
-11 12 30 -1 -20 -6 2 -25 53 99 89 37 65 4 157 -6 36 25 19 23 50 140 184 26 101 151 207 232 235 -32 -96 -177 0 63 1 11 3 -19 25 53 67 72 78 79 97 70 70 65 57
14 39 55 81 -20 15 120 76 61 73 50 75 120 114 -65 -25 0 -1 50 9 -21 -31 -14 -47 -54 -69 -71 -110 -96 -43 -22 16 45 9 -17 -15 -22 21 36 63 59 76 67 60 69 80 89 86 77
54 19 39 67 -18 19 77 108 51 77 57 74 53 35 1 -11 10 47 63 31 72 47 -2 -3 -14 -61 -101 -35 -27 -10 -17 -4 9 -10 -28 -22 -1 25 28 50 73 71 63 79 93 104 95 114 85
-3 20 31 81 -7 13 9 43 55 63 92 68 73 43 10 16 28 29 37 73 60 19 2 -2 -8 4 -7 -19 -22 -43 -45 -39 -10 -30 -33 -9 4 31 28 55 79 54 70 89 97 120 125 118 128
-16 -13 1 33 4 -20 4 22 47 75 52 65 88 38 42 33 29 34 47 49 40 65 56 13 13 16 -13 -17 -23 -51 -56 -49 -52 -40 -36 3 12 36 44 76 74 58 82 96 137 141 119 126 115
-34 -20 -15 30 49 7 3 6 54 93 60 65 68 42 39 13 29 56 59 82 63 76 53 47 29 4 -8 -21 -30 -42 -27 -11 -19 2 24 38 47 52 65 87 83 72 113 162 135 114 135 130 128
-18 -28 2 8 24 -4 5 -10 43 82 76 65 62 47 33 35 38 59 67 87 67 65 64 38 20 11 1 -18 -26 -31 -30 8 30 26 39 42 64 77 92 110 101 107 145 137 141 135 129 154 146
10 12 49 29 3 21 7 27 52 77 45 79 93 68 60 34 29 47 50 61 80 57 43 33 11 17 12 -22 -26 9 13 26 27 44 68 86 122 114 146 173 141 158 129 148 141 143 164 181 151
-32 -13 18 13 -10 33 -10 -9 43 18 66 47 63 93 62 61 44 33 55 55 68 63 63 43 29 12 17 70 -20 39 28 38 53 57 82 95 178 158 195 172 136 158 172 202 156 183 174 193 158
-29 -2 3 2 -18 18 -16 1 62 26 0 44 68 58 76 66 56 23 18 49 38 45 63 70 39 42 27 107 63 38 46 52 77 89 91 154 154 150 208 228 220 199 214 203 158 187 185 186 136
-20 0 5 16 14 1 21 37 11 49 19 23 28 40 95 51 44 35 15 15 37 44 54 50 46 58 62 135 133 185 250 64 83 84 176 163 169 174 196 324 318 231 188 151 157 200 242 171 157
45 -11 -7 57 -5 42 36 24 12 61 73 36 12 0 -30 80 39 27 22 23 36 57 84 81 78 94 118 113 273 177 239 143 -6 48 200 187 135 230 317 286 212 184 145 152 243 243 176 178 186
-14 25 -13 -40 52 39 22 32 20 38 26 22 26 29 19 6 28 50 18 36 39 48 84 162 110 117 189 338 321 212 177 130 104 178 189 155 290 301 296 232 213 170 216 277 231 220 218 250 182
-66 13 -23 -34 11 16 10 14 54 5 32 36 6 22 37 29 17 23 18 15 49 50 79 161 129 139 239 265 219 210 145 85 113 143 143 271 236 193 215 234 239 267 291 224 231 247 288 208 181
31 -16 -20 4 -12 26 -3 37 32 70 20 36 21 37 22 36 38 42 33 37 59 38 108 155 142 122 208 128 165 194 100 94 84 79 124 234 150 185 226 226 229 287 280 253 264 345 330 180 311
10 35 4 5 -10 50 92 44 46 16 12 55 14 48 41 50 46 41 35 36 43 70 107 134 102 59 94 243 153 118 120 99 102 105 188 260 206 198 170 282 271 236 204 297 439 363 284 465 414

GFSSGP_con_3kmhel_045.txt.gz
Helicity
0 -1 24 -3 51 48 32 57 177 136 133 54 -27 13 -1 132 163 136 39 -55 -40 196 77 68 128 118 112 124 122 106 76 58 67 82 93 96 95 91 89 69 52 42 34 36 26 20 12 31 35
0 -17 40 17 34 16 27 146 102 3 -40 37 -22 7 45 120 154 139 78 -87 -95 -18 301 169 68 116 109 123 107 88 68 59 75 90 101 98 86 76 72 54 41 36 30 24 10 1 3 23 31
-7 0 -10 27 36 123 121 98 5 -27 -40 5 22 137 99 174 71 75 103 -38 -3 -29 19 10 172 128 117 107 115 90 76 75 88 106 103 89 65 65 56 46 34 26 18 9 4 14 15 12 24
-11 -9 -11 9 61 191 139 4 41 59 43 119 -37 47 55 145 9 -14 136 113 81 46 57 101 205 168 142 147 120 95 85 92 106 115 109 81 52 48 39 30 24 16 10 10 8 12 4 12 24
24 1 57 76 96 85 13 47 89 105 16 22 25 53 61 32 119 90 71 108 110 171 73 203 137 107 142 136 127 110 96 110 121 118 116 88 58 45 29 29 22 12 1 -8 -10 -1 1 -4 28
1 58 43 66 125 46 12 25 21 118 62 49 46 40 41 88 61 57 109 84 130 145 117 215 108 295 208 275 124 104 117 128 131 139 123 107 99 70 60 41 24 5 -7 -19 -18 -4 17 27 42
59 34 45 78 109 56 17 7 37 125 54 21 37 79 110 42 73 47 71 132 165 185 200 201 142 130 115 145 189 135 154 163 172 153 138 135 104 94 66 45 23 2 -5 -8 -6 4 10 34 58
38 118 5 54 149 30 24 53 -1 49 59 16 2 44 16 45 76 93 139 154 163 235 312 284 295 282 396 291 91 171 175 183 172 145 151 127 94 83 62 38 16 8 6 -1 -3 -6 -9 11 48
1 -32 53 161 36 27 74 47 -13 82 19 82 33 47 89 86 79 137 181 160 153 191 281 227 73 201 171 54 87 109 120 120 128 110 117 130 100 100 76 38 27 22 8 -3 -10 -9 -13 16 47
25 98 136 114 6 24 7 -17 -43 68 65 56 70 45 71 112 122 150 165 177 144 211 215 155 265 384 209 107 107 110 173 200 107 108 94 102 104 85 72 49 46 28 1 -19 -6 0 7 32 34
28 73 61 12 37 59 24 37 -58 73 55 104 67 96 109 110 115 173 170 188 221 219 198 173 200 240 217 161 176 132 210 107 129 119 91 57 96 67 44 29 10 12 0 -13 -6 1 15 38 1
20 21 -45 -16 29 20 93 1 79 64 37 60 89 104 93 108 134 146 166 162 238 318 384 318 289 285 272 293 262 209 242 170 157 89 67 78 49 15 -1 12 12 24 -18 -15 -21 -7 4 22 14
-3 43 -8 -47 -47 93 155 145 77 189 71 50 76 118 188 180 140 179 168 169 239 337 379 332 335 312 356 244 311 218 196 263 34 64 52 58 6 5 9 -7 14 11 -14 -16 -1 21 29 24 29
-59 -69 -12 -22 27 41 126 142 156 46 103 47 46 74 149 131 66 105 145 158 208 295 442 455 454 474 448 516 442 566 482 369 146 39 42 24 10 -19 -41 4 -20 2 -23 18 25 26 17 21 37
-63 -33 -1 9 26 20 168 128 41 46 117 68 122 78 104 75 52 32 84 117 193 246 315 504 634 771 885 576 634 608 829 183 250 177 175 115 26 -70 3 24 -13 -8 -7 74 56 35 54 52 40
-37 -54 9 83 120 117 192 183 80 51 154 252 189 45 108 58 41 24 26 39 100 167 231 285 390 514 560 591 706 845 568 621 467 322 152 32 -54 -3 48 -9 9 20 114 123 119 93 76 71 70
-33 90 95 63 63 129 198 152 71 55 154 265 227 99 94 31 90 53 37 33 19 69 166 216 241 321 449 522 639 495 410 193 134 225 -89 30 22 3 -6 5 33 94 138 120 101 92 92 103 101
29 31 34 74 39 224 181 158 76 63 181 278 232 112 112 76 66 60 51 23 32 69 85 90 38 99 154 179 174 90 50 46 -130 -74 -57 -12 -4 11 -18 -10 31 122 148 111 110 104 121 134 114
72 40 14 137 46 89 142 194 139 54 98 209 152 141 128 72 81 68 69 35 26 11 41 36 23 33 46 -19 -19 -57 -91 -105 -158 -93 -21 -7 17 -30 -28 5 78 142 156 139 138 141 148 179 176
9 1 -70 14 34 72 90 191 94 17 28 100 310 202 128 117 115 85 71 32 38 15 -14 -47 -63 -84 -126 -117 -119 -114 -109 -122 -89 -67 -39 -33 -42 -52 -21 58 125 145 181 157 174 201 213 165 184
-42 2 -108 -45 28 24 11 91 155 15 61 131 283 230 149 206 161 103 101 66 81 39 -3 -44 -69 -99 -81 -56 -94 -95 -67 -88 -64 -53 -41 13 20 9 69 92 158 131 130 169 208 251 232 190 182
-10 -17 -27 -59 -26 -26 10 -34 171 213 114 162 242 233 190 191 213 178 146 113 85 53 20 24 -2 -36 -75 -73 -90 -92 -67 -43 -24 33 75 49 55 72 100 88 176 173 118 182 264 299 278 265 213
10 14 13 -15 -63 -23 -80 -27 11 232 152 153 164 190 184 319 365 317 228 200 128 84 61 24 7 -11 -12 -27 -39 -29 -21 18 23 27 52 52 51 94 122 111 143 220 215 229 264 306 340 204 286
-43 75 66 -8 11 -31 -63 -86 -11 151 110 133 182 208 217 312 415 398 313 237 205 159 117 76 62 32 8 3 -17 -21 -28 27 82 110 149 103 91 168 212 168 221 257 283 312 265 270 291 303 270
-63 54 31 37 7 3 -14 -94 -78 92 46 285 158 209 228 346 354 396 346 310 228 217 188 141 101 39 -2 31 14 38 42 98 160 240 213 270 295 247 145 196 209 246 269 295 328 387 386 380 329
4 59 77 23 -2 -89 -38 -121 -17 76 6 -27 54 136 217 225 345 359 375 426 358 270 250 213 156 91 91 67 64 41 31 30 243 240 263 326 335 214 200 183 193 211 215 295 315 372 384 304 318
7 83 121 121 97 -43 -58 -65 -60 -4 -14 70 52 68 96 180 255 339 361 395 385 363 306 285 224 159 121 198 148 91 76 101 196 234 287 304 294 245 215 211 237 230 244 312 346 354 282 339 298
78 44 90 110 78 9 15 -20 -59 -9 67 41 76 59 39 50 115 212 372 344 266 294 323 316 318 322 222 162 233 183 138 208 269 279 279 282 281 247 259 263 244 279 285 321 339 309 358 367 301
120 -19 50 70 119 62 14 -20 19 53 104 138 7 107 107 131 123 50 200 313 292 378 442 394 240 303 181 102 204 309 322 376 342 287 240 210 246 269 272 261 274 287 299 309 326 342 369 383 453
81 65 53 102 83 113 99 20 56 2 19 9 14 62 115 155 158 97 26 146 149 210 377 222 297 359 251 259 226 388 418 483 329 145 246 249 240 239 251 253 250 254 275 312 342 364 388 490 432

GFSSGP_con_3kmhel_048.txt.gz
Helicity
14 29 13 16 -1 5 3 -8 50 92 -19 7 26 57 32 43 49 173 158 109 97 109 108 172 242 106 140 154 143 94 98 100 106 141 159 151 146 147 139 125 107 87 65 62 61 63 52 38 14
15 18 -10 6 -9 73 29 57 -7 13 4 23 4 -38 55 30 71 88 62 -75 -29 136 129 244 280 97 71 131 126 98 91 101 125 129 150 153 145 137 128 109 84 65 51 42 48 57 59 47 33
2 0 -21 -34 34 74 72 56 -18 69 81 14 42 52 2 -16 17 39 12 -14 -166 119 180 222 310 138 61 150 113 88 74 90 95 114 129 127 112 109 98 78 60 44 37 39 54 72 82 73 34
22 -30 -6 14 85 141 209 46 -20 5 33 46 65 104 70 53 45 65 42 78 -11 -14 -5 173 149 31 305 118 127 97 89 94 98 117 124 115 108 89 79 66 56 42 41 49 73 80 100 75 64
-13 -29 -33 31 76 125 132 52 24 27 73 115 88 47 -5 63 67 74 141 30 45 112 15 34 148 91 131 159 162 110 117 109 112 122 108 100 102 91 72 54 39 32 40 52 63 82 120 81 91
-6 3 47 83 79 109 157 68 -7 5 45 52 63 65 46 52 54 57 64 64 110 141 103 57 80 88 146 152 133 126 144 130 131 115 113 108 99 78 56 42 29 23 27 35 45 65 85 79 92
50 35 46 98 114 145 22 48 26 39 7 12 56 39 38 64 23 58 35 99 202 172 161 193 178 178 266 508 352 190 162 155 154 146 134 120 89 74 63 39 29 23 22 24 39 55 93 130 94
44 -42 28 128 109 59 23 57 27 50 12 25 65 52 43 4 18 54 89 124 117 180 132 279 253 204 152 228 133 192 172 169 167 176 176 143 133 106 69 51 30 14 0 16 41 85 129 152 131
-14 -5 72 61 41 28 28 49 18 -31 39 65 29 31 77 62 62 83 106 141 161 146 272 274 87 305 364 196 121 94 70 143 163 191 194 171 149 118 78 48 36 18 7 14 59 104 118 125 95
-5 23 42 138 92 33 26 70 23 87 49 109 36 63 76 86 69 73 82 146 167 202 304 267 151 232 273 420 107 54 80 129 171 152 170 155 117 124 85 48 38 5 25 19 40 71 76 89 60
4 25 86 118 50 80 28 71 45 61 69 104 41 95 109 107 94 90 98 137 156 199 214 232 115 253 179 49 35 51 25 179 211 134 136 151 133 114 50 44 10 -3 38 10 30 42 55 42 37
16 94 96 60 41 76 49 145 117 75 24 95 146 117 134 117 116 74 92 117 167 150 192 154 183 228 204 132 59 48 128 156 169 107 167 144 99 57 23 8 2 -2 12 14 3 26 35 41 31
45 -26 -25 -7 39 67 113 128 116 151 162 115 60 34 168 128 79 99 119 137 179 171 175 199 184 193 142 115 55 108 76 147 132 82 68 76 92 39 3 -5 -4 -5 30 6 6 11 23 34 23
-35 -54 -16 -20 16 64 195 141 123 164 66 119 100 101 164 101 54 52 70 97 173 269 268 275 179 155 246 154 191 225 215 176 164 109 77 72 15 16 13 2 -27 0 41 15 9 14 34 31 23
-16 -79 -132 -49 -35 82 187 184 193 184 159 130 121 97 121 150 78 50 78 80 98 153 316 276 308 288 274 291 289 336 290 340 178 102 144 52 46 -2 -2 -17 -13 -19 34 7 30 37 54 55 44
-25 -74 -50 -12 -1 88 124 150 143 156 216 177 145 131 103 173 127 67 68 89 95 132 169 333 370 283 290 370 423 526 487 476 369 342 133 70 45 33 28 -8 -19 2 -2 22 59 61 68 60 47
-40 -18 9 25 60 110 136 108 105 165 270 242 188 130 87 83 83 55 49 66 86 106 89 162 465 420 411 572 673 460 601 756 577 341 192 146 114 44 -5 27 22 -11 78 72 113 114 116 81 72
32 12 26 41 84 119 132 148 110 177 288 267 206 155 93 72 82 83 79 79 83 135 182 44 146 478 468 513 338 506 565 636 243 226 232 337 134 83 30 27 29 84 114 124 137 143 116 112 102
-17 -4 63 123 98 128 107 135 171 192 209 238 219 170 101 60 51 65 71 57 66 87 118 130 25 124 226 327 305 216 284 317 18 96 116 67 -25 -3 -8 47 83 77 115 145 145 150 141 145 161
-22 22 66 82 47 70 62 82 112 200 204 256 221 213 137 101 58 43 41 78 70 73 44 65 78 118 133 131 86 31 72 54 -28 -48 -98 -159 -67 -46 13 77 61 79 124 133 166 197 210 185 210
-12 13 61 43 11 39 113 30 76 146 145 174 155 194 198 210 155 77 58 60 47 43 35 16 17 43 34 84 46 -57 -85 -84 -126 -246 -283 -236 -146 -59 -36 58 82 95 129 144 198 210 245 218 218
40 48 18 -8 28 108 41 -20 -53 46 129 112 139 204 269 254 182 138 85 81 57 7 -8 13 -29 -49 -53 -64 -70 -101 -137 -178 -227 -263 -259 -203 -106 -65 -32 4 60 105 177 167 188 224 243 264 266
86 82 44 11 33 66 -13 19 -47 -24 109 147 178 211 280 323 267 211 144 123 64 37 -14 -58 -71 -127 -117 -112 -113 -110 -130 -150 -177 -192 -166 -109 -69 -25 42 39 105 120 168 143 186 254 276 328 333
51 59 44 71 49 -21 -41 8 -95 -29 90 141 221 196 250 342 332 226 167 130 102 71 43 13 -21 -67 -104 -85 -81 -80 -104 -98 -90 -51 -25 -29 -12 35 76 98 141 132 177 162 165 218 314 340 333
75 119 75 69 31 -44 33 -4 -47 -23 99 139 249 177 261 296 314 295 234 245 189 148 127 100 89 42 16 -8 -42 -58 -83 -68 -56 18 45 63 71 72 86 141 187 122 119 211 212 274 313 354 382
95 113 106 57 10 -20 48 -75 -30 13 43 43 95 171 234 285 292 320 333 335 299 270 215 175 144 97 74 81 50 15 -4 -44 -23 -11 33 61 76 169 152 204 207 194 211 227 271 297 335 359 370
57 118 80 170 111 46 21 33 34 -26 -79 37 28 88 111 212 309 303 309 323 331 304 292 271 205 159 172 155 119 50 8 -3 -10 2 75 107 177 212 227 227 190 166 212 235 265 309 334 354 350
99 97 136 198 97 46 35 56 43 81 56 60 -15 67 194 200 305 345 315 327 332 320 336 319 244 269 165 124 135 84 27 -21 -7 76 120 165 162 258 232 198 205 207 211 212 264 301 313 327 328
105 94 169 159 151 95 64 48 22 22 34 8 34 42 51 138 228 292 408 349 389 304 293 358 358 251 252 165 101 219 151 125 104 83 138 170 247 260 245 213 216 217 210 245 276 300 305 327 354
80 90 158 198 195 133 104 23 15 1 21 20 110 85 78 76 90 139 266 337 402 339 323 372 415 325 365 270 202 141 120 192 281 357 372 132 141 209 228 208 201 227 274 262 294 307 317 392 427

GFSSGP_con_3kmhel_054.txt.gz
Helicity
32 41 20 -13 108 147 158 101 78 78 4 3 16 16 -3 10 10 11 72 75 118 189 311 215 152 204 218 231 271 244 298 330 161 180 188 202 197 191 195 179 158 131 100 80 69 81 84 77 71
34 23 15 23 163 207 116 40 88 57 19 20 28 42 43 43 46 40 52 70 109 171 219 200 199 228 224 260 282 240 234 275 309 242 184 181 183 177 176 178 163 117 71 54 59 63 80 80 67
27 0 65 103 149 149 108 66 75 45 37 26 46 63 80 82 62 66 67 67 93 181 235 150 222 213 193 174 175 234 260 209 232 230 178 167 164 154 169 174 145 107 72 61 59 63 59 65 50
34 2 28 131 151 91 108 77 32 7 66 79 95 79 108 109 112 77 90 80 133 210 188 188 184 171 173 169 161 194 220 252 210 208 163 149 137 140 147 164 139 89 67 74 83 90 69 52 33
39 27 126 172 159 50 62 34 12 21 -3 36 85 89 132 146 89 67 116 122 84 131 172 167 214 236 204 306 164 214 216 158 175 177 148 127 127 138 153 161 124 99 67 60 63 64 50 34 33
75 43 179 246 193 71 21 -4 31 36 48 64 116 145 122 134 75 44 40 62 56 65 65 159 162 160 183 352 328 348 291 183 155 228 145 135 125 153 156 157 134 98 76 66 64 49 35 19 13
79 90 196 223 246 135 36 28 54 82 82 100 129 127 143 71 36 10 2 10 23 34 69 99 153 176 245 263 197 255 228 104 153 214 145 143 133 134 151 142 144 116 91 74 59 36 28 10 -2
102 91 215 174 208 89 17 66 69 152 108 119 137 94 97 77 49 56 61 48 26 98 106 111 223 323 312 234 155 257 238 112 155 183 168 159 122 115 145 160 139 109 83 49 17 14 15 6 0
100 122 211 180 148 68 76 84 130 146 136 134 168 153 88 79 70 76 97 104 88 153 244 279 178 196 208 226 395 533 136 92 105 179 198 177 153 129 147 151 140 115 97 70 33 2 15 17 14
117 95 148 60 41 87 110 140 170 183 171 124 170 162 104 109 52 74 78 109 105 144 219 317 -18 134 174 328 363 400 267 36 115 206 167 200 146 124 114 120 150 134 113 98 78 35 37 38 12
101 35 52 24 39 89 62 115 199 191 182 169 119 126 91 71 60 113 122 118 106 143 161 161 192 245 198 51 181 87 231 175 114 215 176 166 155 110 115 133 134 126 116 105 100 45 1 23 21
94 10 41 -14 -8 72 51 131 156 205 213 166 125 128 101 107 94 136 140 154 131 134 216 162 185 234 161 200 213 152 212 156 135 186 142 188 146 142 129 122 91 107 79 78 50 84 25 38 36
100 8 51 6 -7 56 53 113 124 172 207 201 150 115 98 130 151 125 77 92 116 145 149 141 125 158 153 178 129 146 154 123 49 185 129 151 149 122 113 89 50 100 86 74 94 103 75 45 34
102 59 -18 -10 36 25 67 74 137 140 223 223 149 85 44 87 133 135 34 46 38 80 108 195 176 185 145 217 157 90 63 66 152 205 192 176 135 90 98 85 101 86 57 58 57 82 58 32 40
73 39 15 -28 -8 -9 73 38 175 193 203 206 165 107 34 79 83 128 72 23 59 76 116 101 163 181 199 164 143 96 33 100 122 84 59 115 120 107 72 76 92 77 70 54 73 89 86 73 57
95 69 59 27 20 -12 25 13 78 142 245 172 140 106 69 84 73 79 82 41 18 43 111 184 151 150 182 178 117 46 9 -46 -49 -33 12 108 74 54 88 76 67 71 99 52 49 85 85 60 46
135 32 74 100 -9 13 -17 -32 -10 40 139 156 146 124 81 67 87 83 66 72 83 63 52 130 147 168 161 151 144 154 148 -20 20 30 90 96 71 64 85 66 61 88 91 44 53 86 81 71 66
81 96 84 124 36 10 -1 68 111 110 141 159 134 143 106 86 88 65 59 79 67 75 89 63 108 198 271 218 202 243 159 61 67 136 111 105 84 94 121 65 55 93 73 59 87 105 94 64 69
107 110 95 102 41 57 16 36 75 61 160 173 132 133 108 93 74 95 83 94 106 109 125 60 41 191 261 250 226 209 124 95 89 121 123 114 205 236 86 57 69 75 37 68 91 101 91 88 95
138 97 65 28 65 71 18 -4 -18 43 101 199 153 126 116 107 124 112 108 103 107 139 164 69 -11 72 146 241 133 231 158 253 414 162 188 174 338 281 82 83 61 84 66 81 90 129 128 111 114
118 130 82 67 88 83 132 -19 -9 -35 25 81 121 102 106 143 137 118 106 94 92 91 128 46 2 48 146 180 297 266 177 438 397 139 293 209 412 284 164 58 62 56 57 76 107 122 143 147 132
83 108 91 104 121 95 88 26 -41 -38 -46 -6 87 94 117 122 113 118 124 118 101 81 69 73 62 80 130 195 165 191 207 341 199 121 272 341 311 145 149 72 77 62 59 66 91 121 155 178 180
61 96 101 134 138 131 123 133 11 8 -61 -43 45 122 124 132 150 144 129 143 103 86 75 27 56 69 124 170 172 153 65 25 123 109 34 108 78 81 -71 9 68 57 68 73 90 142 161 206 237
82 95 129 150 144 112 77 163 54 35 21 -4 -15 90 107 111 122 94 130 176 135 93 88 78 50 45 78 141 151 185 179 102 23 -52 -30 -11 -85 -48 -10 -62 -15 -8 -2 62 109 142 165 178 204
133 202 235 202 185 122 108 182 87 31 30 55 10 6 94 82 94 114 178 181 193 179 138 111 104 61 30 34 41 54 34 36 16 18 -29 -79 -124 -172 -177 -181 -198 -64 22 95 126 140 152 162 187
203 247 266 162 130 85 159 117 81 28 9 4 -3 -41 10 70 79 98 168 197 201 196 202 180 133 84 88 55 13 -3 -6 -29 -62 -96 -116 -181 -186 -182 -172 -175 -112 -30 52 121 156 143 121 122 171
164 235 157 163 115 99 98 133 89 34 29 28 0 6 36 39 81 127 141 194 213 197 224 246 197 133 94 84 66 34 -3 -7 -49 -43 -50 -62 -92 -90 -67 -62 -72 53 93 170 49 50 113 179 170
139 96 227 256 133 92 134 87 74 39 51 26 36 11 38 35 33 84 132 168 212 235 217 207 227 188 170 136 83 55 40 2 -25 -44 -61 -54 -42 0 8 36 67 62 101 143 220 221 192 234 196
162 162 165 150 187 128 99 61 39 38 44 59 49 27 20 46 61 86 129 158 202 225 254 236 239 257 203 176 165 131 114 72 38 9 -12 30 7 15 32 60 72 74 90 136 150 156 169 188 224
128 140 130 158 147 149 131 112 104 -13 35 33 33 44 25 27 76 92 125 148 200 241 241 246 217 213 211 195 222 179 158 150 196 123 78 98 113 107 102 161 187 133 79 83 117 134 204 248 272

GFSSGP_con_3kmhel_057.txt.gz
Helicity
48 41 22 17 130 190 195 112 84 66 39 20 12 15 15 5 12 28 46 42 53 73 108 195 274 202 187 192 243 229 209 252 265 235 292 219 188 208 204 172 158 136 108 93 81 64 59 56 54
52 37 24 78 144 184 162 74 71 31 23 14 23 33 41 48 80 66 96 67 78 100 146 143 164 173 158 208 214 215 211 215 197 243 227 229 212 204 192 152 130 120 102 99 77 66 56 56 62
53 24 63 116 177 167 136 65 54 31 23 37 32 58 69 82 111 129 103 74 73 92 126 142 146 142 194 204 235 209 180 259 249 270 237 248 203 193 169 137 114 86 87 93 67 54 49 50 54
57 44 60 113 170 149 70 55 46 11 22 53 68 46 85 122 137 132 105 83 69 139 156 117 147 144 194 187 220 222 200 276 256 244 230 197 213 182 145 115 86 75 72 58 50 59 41 42 60
72 62 121 140 173 109 54 18 5 23 19 49 73 62 82 104 108 97 86 91 69 137 147 160 129 134 186 179 217 225 222 269 260 282 220 237 205 162 128 111 105 87 66 70 76 54 51 40 45
105 64 110 147 164 109 66 13 64 36 35 104 91 65 98 90 79 66 75 76 84 98 161 108 146 143 182 148 204 200 202 206 246 269 229 257 218 150 118 107 74 67 73 85 62 47 47 37 31
108 90 100 150 186 187 143 73 65 60 55 85 114 82 113 67 56 50 53 47 53 57 67 144 161 97 214 207 124 184 237 218 237 233 234 257 199 146 119 96 68 46 64 67 52 41 28 29 19
105 96 103 158 176 153 72 41 66 86 89 126 120 83 99 78 61 61 93 108 69 20 57 133 246 270 307 203 203 190 267 244 165 216 219 249 230 190 124 92 69 56 65 51 44 31 32 19 2
106 112 82 157 169 123 70 52 50 88 132 142 156 143 135 70 76 77 89 117 119 101 95 170 274 339 302 204 367 290 109 80 197 226 256 267 229 152 87 85 77 81 47 56 37 28 28 28 7
137 112 74 124 119 75 51 49 66 89 120 139 146 145 148 105 69 54 70 113 128 139 149 151 77 91 125 209 192 181 214 101 172 202 228 285 238 175 103 90 92 75 45 30 40 39 42 18 4
130 73 69 95 67 27 46 64 107 88 118 180 127 134 156 140 93 73 87 126 164 156 125 93 125 131 140 110 250 284 242 220 134 174 283 223 247 197 147 96 92 71 59 19 29 34 8 9 -3
110 20 80 44 48 73 43 76 50 128 131 188 149 145 165 129 87 107 137 85 143 88 81 98 112 133 147 188 296 438 518 385 140 202 221 241 262 201 129 110 95 81 37 49 8 -1 26 16 12
114 10 49 -2 32 43 60 59 18 124 129 198 177 182 157 127 108 120 118 41 116 54 60 76 97 140 153 196 276 243 154 144 158 161 185 212 223 145 114 71 102 81 65 52 31 37 58 41 28
113 32 10 -2 3 41 15 -4 27 81 145 196 185 186 170 132 111 129 108 51 57 65 78 85 91 111 148 163 183 134 245 318 303 180 148 193 190 134 105 112 81 57 50 51 54 50 41 36 31
154 50 9 -12 33 23 9 -35 90 80 98 127 135 148 157 124 101 100 107 79 18 54 94 103 101 123 112 148 112 110 236 237 266 94 159 218 139 149 101 108 69 55 49 60 79 126 60 31 41
179 106 40 57 78 50 -5 -18 4 33 70 85 115 103 122 70 76 67 81 66 57 64 100 137 77 147 93 137 131 187 235 199 183 186 140 207 80 120 143 94 68 57 74 52 73 88 66 59 50
187 92 66 70 67 96 49 -59 3 13 44 78 109 95 94 74 51 58 44 60 75 68 108 106 129 150 124 127 185 152 171 159 142 149 207 77 64 121 110 79 84 69 67 48 67 76 59 62 74
177 131 80 62 109 126 103 6 19 47 88 94 128 130 94 82 41 62 46 44 60 94 115 167 99 138 150 197 191 154 159 141 129 154 115 23 45 73 114 87 69 94 90 62 66 71 47 54 76
121 103 76 66 102 89 102 20 20 14 48 58 107 138 101 80 50 45 47 52 51 76 135 168 177 125 172 188 162 161 129 162 114 65 -34 -29 -9 45 89 89 82 96 78 41 65 75 67 92 93
108 133 56 24 82 89 84 36 -38 21 19 31 82 123 98 97 95 67 66 71 68 101 155 162 64 88 166 155 196 170 149 191 81 -2 -51 -26 -49 55 92 99 75 67 67 52 79 64 88 87 91
71 96 61 35 121 102 79 75 38 -20 -12 -18 36 67 86 114 126 109 84 68 83 115 164 113 -16 -13 123 230 212 226 320 181 96 48 60 21 62 127 114 92 97 87 67 42 57 55 78 82 92
67 77 55 62 83 92 163 6 -9 -52 -68 -43 -2 52 107 98 114 135 107 85 71 75 109 44 34 -3 18 188 233 235 213 252 28 176 200 102 136 169 194 128 295 101 49 47 68 64 74 110 97
71 82 54 71 87 82 111 63 49 27 -7 -55 -24 17 102 124 115 148 153 110 71 79 67 54 50 110 122 99 118 196 189 142 135 222 358 299 142 122 240 254 211 66 46 49 86 78 83 106 116
86 106 135 141 132 56 70 99 35 34 26 -3 -19 -20 -1 89 74 73 119 140 75 72 45 44 93 56 87 133 159 219 170 179 146 180 287 170 131 244 259 271 251 97 65 67 72 61 55 79 102
150 164 193 160 151 94 114 101 46 88 65 41 9 84 1 48 65 80 131 157 129 97 77 44 58 87 122 137 111 138 122 100 118 83 125 52 74 163 121 255 217 46 47 56 64 51 48 69 85
133 170 239 137 128 105 135 99 47 -13 -11 -0 -4 44 36 11 57 76 96 134 130 132 132 88 54 56 75 104 104 86 61 55 57 60 103 98 94 126 116 20 40 -0 -10 -25 5 63 72 68 71
143 183 144 176 192 134 108 125 16 17 42 49 41 47 76 36 46 36 81 99 123 140 155 148 107 72 87 89 79 56 61 38 18 -13 -16 6 46 35 36 5 8 -24 -40 -44 -42 2 65 91 75
93 86 152 201 143 107 94 83 32 33 14 37 22 14 20 53 34 36 53 79 90 126 142 126 124 116 106 80 98 85 70 35 23 9 -14 -39 -56 -49 -66 -86 -90 -83 -94 -79 -34 52 99 154 152
154 137 180 165 185 138 92 70 30 -19 2 20 38 38 54 28 5 15 38 69 86 119 151 145 122 124 113 94 75 86 87 91 83 69 45 11 -27 -53 -99 -111 -110 -96 -58 32 86 123 145 110 124
130 130 128 181 171 178 163 134 92 49 -12 2 41 39 36 54 46 32 50 69 98 127 178 194 165 141 139 153 135 109 128 90 94 94 89 109 51 4 -13 9 3 22 53 67 149 181 151 138 120

GFSSGP_con_3kmhel_060.txt.gz
Helicity
44 30 6 15 59 68 89 119 94 50 61 39 31 10 9 -8 26 41 50 64 110 93 133 132 125 146 124 166 232 246 244 219 222 185 172 144 178 135 141 164 155 116 88 89 86 90 81 81 83
38 31 18 59 41 62 121 107 66 70 35 26 17 10 11 14 55 53 43 77 83 73 95 102 94 160 156 194 208 242 244 233 235 217 224 157 171 197 186 177 154 117 94 89 79 74 75 69 81
35 3 35 72 72 35 65 98 71 59 31 17 30 27 31 61 73 98 88 70 92 77 96 98 112 129 127 159 197 219 217 220 239 232 242 203 200 210 193 175 153 118 95 76 72 79 83 72 81
40 42 57 68 82 101 50 84 60 47 31 19 18 29 67 112 109 128 90 74 68 96 62 140 138 106 111 96 148 190 203 236 265 265 246 219 194 188 184 137 112 93 85 88 86 75 70 62 66
28 50 76 74 83 95 64 50 29 55 73 44 53 36 51 101 109 109 66 70 49 95 65 82 111 99 109 104 115 196 237 250 283 253 256 213 176 175 155 100 75 100 97 99 73 50 56 62 65
65 58 79 84 108 92 96 66 55 50 47 55 32 20 47 102 76 69 42 53 55 73 131 74 109 88 109 110 127 225 262 251 267 253 248 204 178 163 147 94 94 116 114 78 62 42 52 51 50
14 61 54 89 96 95 138 84 61 21 34 23 78 36 85 77 89 60 57 49 50 81 157 137 191 115 98 81 59 119 267 244 243 233 244 208 196 165 178 155 136 131 117 66 47 50 47 41 32
36 69 77 83 86 63 130 66 24 22 2 121 82 25 38 139 83 62 79 71 73 97 111 161 228 179 100 89 115 124 140 231 246 210 244 211 218 172 177 178 118 124 92 70 54 50 49 44 43
59 63 45 66 87 58 85 51 66 48 30 85 102 75 100 119 73 50 66 79 98 102 130 130 198 159 323 189 116 87 159 211 251 225 253 234 144 117 96 116 102 87 87 62 40 56 72 53 34
65 41 32 65 75 73 51 17 -4 57 45 62 68 89 98 112 97 65 62 87 89 103 155 151 101 164 258 358 369 197 244 251 229 239 151 119 109 92 100 123 92 93 77 49 46 61 49 3 17
56 -6 55 77 72 87 31 3 43 40 23 13 65 89 116 112 99 90 101 115 112 95 70 107 68 120 78 179 127 148 204 306 311 255 136 143 149 179 131 137 81 70 51 25 33 26 -6 21 17
42 9 43 41 60 41 19 39 11 35 26 63 77 103 141 124 104 104 94 145 64 38 59 139 123 100 41 6 -9 99 166 244 163 55 97 176 202 165 142 158 87 54 20 22 19 2 29 20 22
34 -4 31 18 32 30 39 -6 -29 16 20 74 96 117 126 127 119 117 91 100 7 12 20 46 60 35 110 152 199 235 231 248 119 114 132 144 131 210 137 149 102 37 10 4 23 33 25 36 39
48 7 6 14 8 15 14 -7 6 -15 34 65 73 95 121 104 111 112 88 102 1 11 25 54 47 55 74 97 194 348 363 392 314 186 123 14 125 171 117 154 90 40 21 12 29 22 29 44 34
61 28 25 12 -2 -15 26 -12 31 2 58 50 46 80 110 95 98 87 88 108 8 -12 30 60 68 58 74 84 138 231 216 359 200 92 34 76 127 181 112 128 91 44 38 27 29 40 29 62 44
30 28 3 13 24 58 57 20 26 40 28 12 35 66 84 96 85 97 62 77 67 17 38 62 89 71 80 102 143 133 181 201 172 61 78 101 128 139 150 139 86 64 54 48 37 50 66 50 53
51 14 14 44 40 82 59 -13 62 35 10 16 41 53 76 85 83 74 64 75 72 60 57 80 97 81 141 145 195 112 76 203 266 185 125 51 103 104 93 92 89 68 65 39 52 50 39 58 70
38 8 12 21 84 51 43 -42 -2 20 -2 11 25 45 67 70 80 76 65 66 84 88 72 80 115 69 83 149 209 123 118 190 272 236 172 115 193 252 77 61 82 69 54 43 53 36 38 41 72
48 48 29 19 112 93 25 -10 -12 33 19 21 17 32 55 71 88 94 72 67 79 101 117 134 145 150 170 196 171 144 146 174 185 171 152 237 91 17 49 60 73 53 41 31 53 52 47 70 83
30 45 35 50 54 44 34 13 9 12 17 14 0 24 46 85 91 89 84 72 69 93 126 187 214 162 164 162 143 171 141 166 142 120 207 153 18 50 78 104 63 41 46 54 67 84 53 76 74
25 23 21 33 43 8 63 38 13 20 37 22 -18 -10 41 69 101 107 78 71 72 92 112 140 168 74 121 107 123 174 205 197 163 86 117 60 -74 -3 13 78 60 51 54 71 76 57 58 66 49
30 -3 27 51 44 28 91 13 0 36 -2 26 -15 0 15 39 72 115 95 77 61 70 81 95 109 7 3 43 134 194 206 132 103 41 -11 24 -181 -23 -19 28 49 84 70 72 66 51 59 36 37
29 70 35 40 37 58 20 37 -1 41 -10 23 12 9 9 28 55 110 90 70 58 73 81 55 49 27 -4 33 133 206 173 95 175 117 9 -95 -83 -40 27 87 94 100 116 147 115 66 56 27 37
59 66 47 87 75 33 21 24 15 -16 -8 29 33 7 8 -3 41 74 84 83 62 65 71 74 54 47 55 134 156 194 101 136 148 166 138 78 72 64 84 188 75 126 142 155 179 119 39 28 53
58 53 102 69 111 50 99 26 18 13 -1 9 50 12 25 -1 28 86 106 97 83 77 71 70 52 57 74 111 171 180 163 175 193 176 141 103 169 171 196 311 206 182 204 170 99 -45 32 45 62
64 65 148 93 76 51 162 63 29 18 22 1 10 25 8 6 38 75 93 83 79 82 80 78 72 55 67 87 116 124 118 159 161 159 71 75 139 129 246 199 102 100 130 168 140 59 60 40 52
62 85 105 136 159 144 98 75 14 -18 -20 -26 8 32 24 1 40 69 102 88 70 83 96 82 79 75 71 66 74 84 75 96 76 80 49 47 95 132 252 289 239 155 134 158 99 53 22 36 38
71 40 112 133 127 93 89 78 44 34 9 37 32 36 42 39 38 62 92 84 74 75 92 86 82 84 74 71 68 68 62 47 33 49 57 45 76 101 122 126 177 124 105 90 88 25 -19 -19 39
85 123 145 133 92 117 88 79 41 4 43 20 27 41 39 31 33 49 59 67 73 90 96 95 89 94 100 95 70 58 57 48 28 18 27 39 52 88 84 57 67 51 53 44 58 27 -15 30 44
24 37 39 101 114 117 128 101 42 86 56 7 21 54 38 35 39 36 40 55 73 102 124 143 133 116 106 109 86 64 57 67 60 34 39 53 77 147 159 140 93 62 44 39 41 26 27 42 98